GFSNIL_sfc_wetblb_000.txt.gz
Wetbulb
43.29 44.06 43.75 43.18 40.02 41.82 41.13 40.34 40.72 40.37 39.93 39.48 39.37 38.48 37.69 36.77 36.38 36.40 35.57 34.69 35.25 35.63
45.36 44.99 44.51 44.44 41.74 42.19 40.16 41.49 39.59 39.25 38.09 38.02 37.61 37.53 37.23 35.35 34.82 34.32 33.94 33.67 33.88 34.25
45.39 44.52 42.84 40.85 39.73 39.01 38.94 39.63 38.78 37.49 36.79 36.89 36.67 36.17 36.15 34.92 34.37 33.85 33.49 34.53 33.43 33.33
41.79 41.35 40.58 39.48 39.42 38.63 38.62 39.58 39.68 38.45 36.60 35.39 34.70 34.04 33.00 33.54 34.18 33.81 32.24 31.31 30.21 29.75
41.61 40.71 39.34 38.45 37.55 37.86 37.58 37.67 37.42 37.71 36.31 34.15 33.01 32.29 31.41 31.86 31.36 29.72 28.74 28.39 27.76 27.82
41.39 41.22 37.95 36.90 37.41 36.94 35.76 36.11 36.31 35.41 33.83 32.67 32.82 32.15 30.97 29.94 28.73 27.16 27.04 26.80 26.42 26.22
37.21 39.18 36.43 35.60 35.91 37.60 37.93 38.12 34.82 33.52 33.48 33.45 32.10 31.27 29.61 28.34 26.33 26.17 26.51 27.02 26.22 25.79
38.14 37.28 37.17 38.24 37.44 37.94 37.79 37.97 34.11 32.92 32.30 31.09 31.10 29.68 26.87 26.93 25.99 25.25 25.44 25.66 25.58 25.35
38.38 38.00 37.28 36.62 37.27 36.46 36.78 32.67 32.16 31.11 30.33 29.20 30.68 30.72 30.47 27.77 24.77 25.06 24.35 23.11 23.92 24.51
37.63 37.00 36.76 37.25 36.77 36.23 32.33 32.16 30.22 29.48 28.94 27.35 27.26 30.82 31.11 30.12 25.26 24.18 23.27 23.94 23.53 24.23
35.84 35.57 35.72 36.38 35.11 34.33 32.84 30.79 28.32 27.30 27.85 27.19 28.55 31.25 31.79 29.73 26.16 25.31 24.90 24.50 23.95 23.43
34.98 34.66 34.46 35.24 34.85 34.88 30.76 26.81 27.91 27.93 27.36 26.60 26.88 30.79 30.29 27.98 23.30 23.64 22.98 24.47 24.45 24.06
35.25 34.81 34.31 33.99 32.76 31.21 27.70 28.69 28.07 26.77 25.91 27.74 24.40 28.59 27.67 25.97 20.83 17.33 21.07 22.46 23.29 24.62
34.82 34.16 33.84 33.09 30.00 27.86 27.50 27.10 24.89 24.56 24.29 24.53 24.51 23.94 25.95 25.33 21.38 20.22 20.86 20.19 21.20 22.63

GFSNIL_sfc_wetblb_003.txt.gz
Wetbulb
41.76 41.59 41.77 43.28 42.85 40.71 39.41 39.15 39.40 38.61 38.05 37.76 37.62 36.73 36.15 34.70 34.13 33.29 31.87 31.38 31.58 31.84
43.36 42.89 42.02 41.55 39.91 38.54 38.56 40.18 39.02 38.41 38.90 39.34 37.88 36.55 35.70 34.58 32.68 32.83 32.05 31.29 31.09 31.14
41.11 40.86 40.28 39.66 39.13 38.46 38.25 40.87 40.08 40.02 39.08 37.15 36.96 36.50 34.59 33.15 32.89 32.76 31.80 32.58 30.72 29.11
39.47 39.66 39.23 38.53 38.37 37.71 38.31 38.04 37.89 38.51 36.94 36.65 35.17 33.85 32.30 31.34 32.88 32.74 30.29 28.32 27.72 27.46
37.43 37.30 37.12 37.39 36.43 37.40 37.44 35.33 35.15 35.79 36.90 34.50 33.03 32.11 31.95 31.47 30.65 28.33 27.21 26.76 26.49 26.46
34.90 35.11 35.43 34.27 34.37 35.68 36.14 37.26 36.96 36.38 32.98 32.19 33.14 32.31 31.14 30.04 28.02 26.63 26.63 26.25 25.75 25.47
35.45 35.00 33.87 33.45 34.26 35.49 36.67 35.89 34.20 34.33 32.37 32.62 31.98 30.94 29.82 27.70 26.24 26.20 26.60 26.44 26.00 25.04
35.43 35.64 35.23 34.61 34.81 34.94 35.56 35.03 34.68 32.21 30.88 30.74 30.48 29.53 27.06 27.01 26.42 25.43 24.89 25.57 25.56 25.04
35.38 35.37 35.54 35.30 34.99 37.39 35.53 34.82 29.97 28.94 28.86 28.33 29.69 31.56 31.33 29.44 25.18 25.34 24.60 23.56 24.32 24.60
35.26 34.73 34.42 34.94 35.47 34.11 32.92 28.66 28.65 27.60 27.56 27.06 26.88 31.30 31.88 32.26 27.87 26.35 23.92 25.00 24.43 23.94
34.26 33.50 33.72 34.04 33.80 33.07 34.92 32.40 26.03 26.77 27.16 26.87 29.14 31.45 30.79 29.06 24.71 24.33 23.46 23.09 22.68 22.52
33.67 33.41 33.05 32.94 32.51 32.32 31.19 26.64 26.81 27.50 26.82 25.89 24.50 28.92 27.91 25.80 21.53 21.88 21.14 22.51 22.30 22.87
33.34 33.21 32.85 32.31 31.37 31.02 25.74 27.31 26.78 26.28 24.40 25.50 22.48 26.45 26.03 24.59 20.09 15.11 19.90 20.69 21.67 23.35
32.34 31.65 31.06 30.63 28.57 26.26 26.60 25.84 24.12 24.75 22.73 22.69 23.13 21.87 24.66 24.46 18.46 18.60 20.65 19.89 19.99 21.83

GFSNIL_sfc_wetblb_009.txt.gz
Wetbulb
44.83 43.75 43.17 42.89 42.84 42.58 42.85 43.56 45.74 45.38 43.96 43.59 43.76 43.21 42.17 41.85 41.00 40.90 39.83 38.93 38.50 37.85
42.54 42.16 41.66 41.93 42.29 41.79 42.96 43.63 44.82 43.95 43.57 44.04 43.02 42.42 41.85 41.04 40.59 40.11 39.93 39.35 39.13 38.27
41.44 41.80 42.06 41.91 41.12 41.40 42.50 43.62 44.33 43.47 43.24 42.24 43.31 41.88 41.19 40.33 40.16 38.73 39.04 38.50 38.31 37.52
41.36 41.57 41.57 41.03 40.89 41.03 41.88 42.87 43.33 43.24 41.96 42.21 41.13 40.81 39.76 39.20 38.10 37.21 38.01 38.04 36.06 34.96
40.80 40.95 40.50 40.22 40.33 40.84 40.46 41.40 41.19 40.29 40.39 40.00 40.19 40.44 38.60 37.34 37.35 36.79 36.01 35.45 34.20 33.69
39.82 39.78 39.96 39.92 40.09 40.30 39.98 39.61 39.88 39.97 38.47 38.53 38.89 37.87 37.01 36.37 36.05 34.96 34.25 33.69 32.71 32.40
39.59 39.79 39.72 39.76 39.81 39.89 40.05 40.02 40.18 38.97 38.74 39.33 37.25 35.96 35.95 35.10 34.16 33.33 33.02 32.69 32.43 31.74
39.50 39.97 39.73 39.42 39.17 39.42 39.92 40.46 39.15 36.80 35.42 35.08 35.19 34.27 34.20 33.61 33.17 33.06 32.43 32.08 30.99 30.23
38.56 39.19 39.16 38.69 38.51 38.82 39.29 39.11 36.72 35.85 34.59 33.65 33.31 33.02 32.91 32.28 31.82 30.43 29.04 27.70 27.93 27.79
37.67 38.06 38.21 37.70 37.37 37.67 38.21 38.73 38.17 34.77 34.23 33.90 33.47 30.87 30.11 28.43 29.43 28.24 27.45 26.61 25.89 25.58
37.33 36.91 37.33 36.74 36.60 37.36 37.63 37.13 37.11 34.42 33.45 32.61 30.91 28.75 27.98 27.03 28.33 27.56 26.47 25.86 25.63 25.19
36.53 36.12 36.19 35.94 36.32 36.18 36.00 36.10 34.97 33.35 31.46 29.51 29.30 26.86 26.72 26.84 27.06 25.99 25.28 25.68 26.02 25.44
36.30 35.85 35.46 35.71 35.40 35.35 35.17 32.47 32.85 30.36 29.45 26.19 27.45 25.39 25.77 26.23 26.80 24.95 24.89 25.46 25.37 23.81
36.31 35.70 35.69 35.27 34.73 33.89 32.95 31.67 30.62 28.61 28.29 27.30 26.65 26.60 24.66 25.19 26.56 25.37 24.35 23.42 23.24 24.53

GFSNIL_sfc_wetblb_012.txt.gz
Wetbulb
46.23 46.15 45.61 45.26 45.08 44.55 44.21 44.51 46.15 47.26 48.00 47.96 47.37 45.93 44.43 45.41 44.25 43.09 42.01 41.20 40.89 40.36
46.45 45.60 45.21 45.52 45.64 44.77 44.79 44.25 45.80 47.64 47.57 46.38 45.87 44.88 45.45 44.28 42.87 42.39 41.61 41.10 40.78 39.88
45.58 45.62 45.73 45.65 44.44 44.13 44.50 44.69 45.21 46.32 46.03 45.61 44.25 43.91 44.25 42.81 42.25 40.96 40.69 40.34 39.74 39.54
45.83 45.43 45.36 44.66 44.17 43.77 44.13 43.82 43.79 44.77 44.92 43.83 43.27 43.08 42.97 42.45 40.69 39.49 39.68 40.07 39.44 38.79
45.67 45.18 44.23 44.20 43.69 43.80 43.31 43.61 43.20 43.16 42.97 43.09 42.76 42.51 42.09 41.03 39.78 39.11 38.74 38.79 38.54 37.62
44.64 44.02 43.65 43.52 43.52 43.16 42.96 42.94 43.26 43.03 42.27 41.96 41.74 41.79 41.19 39.90 39.33 39.07 38.74 38.08 37.26 36.78
43.56 43.69 43.78 43.54 43.09 42.65 42.57 42.39 42.68 42.47 42.23 42.28 41.46 40.69 39.48 38.99 38.62 38.33 38.01 37.61 36.91 36.02
43.65 43.79 43.60 43.06 42.38 42.35 42.25 42.15 42.45 40.99 40.39 39.75 39.29 38.07 37.93 37.82 38.11 37.41 36.23 35.78 34.68 33.84
42.97 42.21 42.48 42.10 41.88 41.57 41.38 41.69 41.74 41.38 40.47 39.75 38.72 32.64 31.68 31.69 35.63 35.02 33.99 32.74 32.57 32.57
41.33 41.07 41.32 41.34 41.11 40.66 40.51 41.23 40.74 40.85 40.30 39.28 38.91 30.97 29.26 28.79 34.17 33.70 32.76 31.64 30.96 30.47
40.33 39.99 40.55 40.78 40.59 40.61 40.71 40.13 39.60 39.55 39.47 38.44 35.05 28.65 27.67 27.41 33.56 32.88 31.80 31.09 30.31 30.09
39.53 39.40 39.74 39.51 39.98 40.38 39.80 39.28 39.22 38.72 37.50 36.25 34.94 27.29 26.60 27.60 32.10 31.02 30.15 30.33 30.14 28.65
39.32 39.02 38.84 39.12 39.65 40.02 39.52 38.33 37.76 36.35 36.45 30.31 33.45 26.38 26.01 27.44 31.66 29.52 29.36 29.97 29.10 26.18
39.11 39.02 39.11 39.12 39.54 39.22 38.57 37.34 36.38 34.20 34.55 33.79 32.22 31.25 25.64 25.46 29.57 29.33 28.00 28.22 28.18 28.28

GFSNIL_sfc_wetblb_015.txt.gz
Wetbulb
47.63 46.04 46.90 46.62 46.39 45.79 45.23 45.47 46.19 46.50 47.69 48.25 48.10 47.29 46.48 45.91 45.65 44.64 43.36 42.19 41.61 40.85
47.61 46.82 47.00 46.59 46.72 45.53 45.64 44.88 45.51 46.17 46.56 47.24 47.04 45.92 46.25 44.66 44.27 44.06 43.12 41.96 41.47 40.52
46.84 47.43 47.59 47.31 45.51 45.00 45.20 45.15 44.95 44.76 45.09 46.01 46.00 46.39 45.08 44.36 43.95 42.24 42.19 41.11 40.55 40.21
46.93 47.07 47.21 46.38 45.60 45.07 44.90 44.61 44.09 44.18 43.91 44.15 44.52 44.61 43.93 42.80 42.54 41.49 40.83 40.57 39.79 39.51
47.32 46.67 45.99 45.53 45.21 45.20 44.20 44.25 43.81 43.72 43.50 43.22 42.93 42.93 42.08 41.43 41.65 40.74 39.49 39.24 39.15 38.26
46.36 46.05 45.67 45.10 45.24 44.73 43.93 43.47 43.62 43.64 42.94 42.60 42.32 41.74 42.17 41.76 40.71 39.84 39.35 39.15 38.17 37.70
45.78 45.73 45.35 45.16 44.81 44.24 43.45 42.81 42.96 43.42 42.10 41.91 41.41 40.88 40.75 40.13 39.40 39.17 38.80 38.66 37.78 36.63
45.85 45.53 45.03 44.39 44.21 43.61 43.05 42.71 42.82 42.50 41.71 41.82 41.00 39.49 38.56 38.69 38.33 37.89 37.32 37.02 36.58 35.61
44.81 44.44 43.43 43.17 43.16 42.90 42.70 42.40 42.40 41.86 41.50 40.50 40.23 32.62 31.68 31.51 36.02 36.53 35.80 34.61 34.59 34.27
43.72 42.49 42.25 42.12 41.70 41.79 41.90 42.11 41.39 41.26 40.98 40.61 39.84 32.09 29.81 29.02 33.72 35.55 34.97 33.88 32.87 32.37
42.03 40.65 40.93 41.16 41.10 41.59 42.07 41.34 40.69 40.28 40.26 39.83 35.18 30.39 28.55 28.24 33.17 35.07 34.22 33.20 32.54 31.72
40.59 40.25 40.40 40.10 40.44 41.19 41.11 40.82 40.34 40.12 39.38 38.48 35.53 29.60 28.08 27.70 33.45 33.45 32.38 32.49 32.35 30.67
40.42 40.02 39.58 40.22 40.41 40.81 40.87 40.10 39.98 38.65 38.54 32.40 36.34 29.03 28.02 27.86 32.39 31.39 31.30 31.54 31.59 28.10
40.14 40.08 40.28 39.77 39.93 40.08 39.66 39.49 38.94 37.05 37.39 36.96 35.03 33.51 28.30 27.41 29.63 30.79 29.49 29.18 29.67 30.67

GFSNIL_sfc_wetblb_018.txt.gz
Wetbulb
47.69 45.76 45.77 45.67 44.46 43.84 43.27 42.62 43.28 43.29 43.62 44.39 45.42 44.62 43.42 42.65 42.19 41.92 40.40 39.22 38.87 36.78
46.55 46.28 46.00 45.84 44.61 43.36 43.23 43.17 42.74 42.96 42.71 43.20 43.80 43.94 43.27 41.91 41.49 41.38 40.53 38.62 39.34 36.74
46.68 47.13 46.61 45.10 43.80 42.76 42.86 42.93 42.79 42.46 42.28 41.93 42.32 43.81 43.10 41.71 41.46 40.21 38.69 38.22 38.14 36.84
46.69 46.93 46.17 44.65 43.95 42.88 42.81 42.60 42.23 42.16 41.88 41.50 41.13 41.27 40.26 39.76 39.45 38.68 38.28 38.93 36.87 36.52
47.19 46.72 44.94 44.33 43.66 43.28 42.35 42.69 41.99 41.71 41.67 41.79 41.00 41.12 39.69 39.02 39.22 38.43 37.07 37.60 36.23 35.38
46.08 44.94 44.41 43.81 43.69 43.46 42.57 41.76 41.41 41.44 41.32 40.33 39.69 38.95 39.43 39.18 38.74 37.26 36.66 35.75 34.94 34.60
45.34 44.94 44.12 43.64 43.32 43.21 42.58 40.87 40.80 41.12 41.40 40.36 39.66 39.64 38.80 37.98 36.18 35.70 35.77 35.98 34.75 33.86
45.58 44.64 44.07 43.63 43.34 42.82 41.80 41.10 41.17 40.50 40.57 40.48 39.66 38.80 35.45 34.77 33.70 33.56 33.21 33.68 34.07 32.01
44.49 43.89 42.86 42.16 42.55 42.05 41.65 41.14 40.42 39.49 39.82 38.99 40.16 33.75 32.80 31.65 29.96 32.47 32.01 30.58 30.37 30.50
44.13 42.34 41.75 41.92 41.30 40.14 39.96 40.02 39.77 39.11 39.17 38.31 34.36 33.01 31.50 29.90 28.86 30.67 30.70 29.72 28.52 29.28
42.79 41.10 40.46 40.20 39.85 39.90 39.79 39.46 38.51 38.16 38.47 37.61 34.05 32.45 30.98 29.11 27.12 29.92 29.90 28.91 28.20 27.27
40.42 39.59 39.51 38.90 38.73 39.27 38.99 38.46 38.20 38.30 37.18 36.39 31.11 31.47 29.96 28.01 27.36 29.31 28.74 29.84 29.30 27.99
39.52 38.67 38.24 38.45 38.51 38.59 38.07 38.20 38.10 36.96 36.37 33.19 30.41 30.89 29.79 27.94 26.94 27.29 27.47 27.70 27.76 27.91
39.32 38.97 38.64 38.09 37.63 37.13 36.63 36.83 34.66 33.03 33.41 33.35 32.30 28.94 30.21 29.47 26.29 26.68 26.59 25.77 25.47 26.31

GFSNIL_sfc_wetblb_021.txt.gz
Wetbulb
42.13 41.15 41.20 40.89 40.49 40.10 39.30 38.73 39.25 39.53 39.68 40.08 40.88 41.92 41.10 40.43 39.82 39.76 38.29 36.90 36.35 35.10
42.28 42.00 41.64 41.51 41.07 39.58 39.36 40.74 39.47 39.08 39.17 39.43 39.11 40.69 40.88 39.68 39.36 38.94 38.47 37.39 35.64 35.56
41.90 42.46 42.07 41.54 40.82 40.05 39.47 39.41 39.09 38.66 38.86 38.68 38.68 38.60 40.38 39.60 39.63 37.65 36.28 38.24 35.39 36.30
41.96 43.64 42.91 43.36 40.00 40.98 39.30 39.83 38.88 39.27 38.67 38.60 38.66 38.02 36.85 36.36 37.18 36.28 36.19 37.13 35.76 34.74
43.14 44.42 43.12 41.64 41.61 39.45 39.11 39.53 39.07 39.05 38.99 39.12 38.33 36.79 36.16 36.48 37.09 36.93 35.95 35.21 34.65 33.41
44.58 44.32 43.14 42.15 40.98 40.07 39.33 38.76 39.01 39.60 39.63 38.91 37.91 36.84 37.05 36.30 36.42 34.85 35.34 34.73 33.70 33.38
43.94 43.67 42.38 41.36 41.31 41.15 39.81 38.87 38.40 38.84 39.14 38.90 37.94 38.42 37.13 35.92 33.82 33.50 33.96 33.86 32.64 31.41
44.22 43.20 42.09 41.36 40.71 40.57 40.24 39.44 38.92 38.72 38.61 38.97 38.52 37.96 34.88 34.11 32.63 31.09 30.61 30.88 31.07 29.58
43.10 42.12 40.81 40.12 39.33 39.50 39.78 39.62 38.91 38.02 38.37 37.63 38.55 34.52 34.34 32.37 29.28 30.59 29.98 28.66 28.07 27.82
41.31 40.41 39.72 39.82 39.00 38.56 37.81 37.59 37.89 37.89 37.58 36.17 34.55 34.35 33.39 31.58 28.02 28.45 28.08 27.34 26.29 27.41
38.90 38.36 38.94 38.53 37.89 37.51 37.92 37.22 36.92 36.73 36.81 35.69 33.93 33.87 32.78 30.50 26.74 27.49 27.88 26.95 26.52 25.45
38.98 37.99 37.96 37.26 36.77 37.24 36.75 36.30 36.11 37.01 35.79 33.97 31.89 33.09 31.49 28.41 26.22 27.56 27.20 28.22 27.77 27.06
38.66 38.25 37.13 36.97 36.69 36.62 35.94 35.39 35.71 35.19 34.15 33.35 29.53 32.47 31.25 28.85 25.01 26.02 25.98 26.29 26.07 28.41
38.65 37.99 37.58 36.81 36.14 35.41 34.58 34.31 32.49 31.54 30.70 30.61 29.16 29.20 31.67 31.02 26.02 25.26 25.54 25.14 24.30 24.54

GFSNIL_sfc_wetblb_024.txt.gz
Wetbulb
41.87 40.97 40.60 41.26 41.12 40.23 39.77 39.34 40.10 39.72 39.26 38.68 38.64 40.13 40.04 39.19 38.75 38.00 37.04 36.27 35.63 34.73
41.24 41.74 41.63 41.53 41.01 40.77 41.00 41.28 38.33 38.10 38.14 38.06 38.31 37.12 38.57 38.62 38.47 37.72 37.30 36.25 35.85 34.79
42.79 42.33 41.86 41.73 41.21 41.14 40.79 40.98 38.87 39.08 38.02 37.35 37.34 37.68 37.87 38.38 38.46 37.35 35.28 36.20 35.53 34.68
42.32 42.81 42.72 41.95 41.66 41.31 40.53 40.52 39.94 38.99 37.57 38.07 38.34 37.76 36.19 35.45 35.57 35.46 35.81 35.70 34.78 35.06
42.06 43.01 42.97 42.07 41.28 40.53 40.67 39.72 39.10 38.75 37.90 37.95 38.00 36.61 35.29 35.22 35.75 35.39 33.77 33.91 33.72 33.26
41.48 41.78 41.78 40.69 39.79 39.32 39.51 37.93 37.47 37.77 37.97 37.87 37.63 36.85 36.88 35.95 35.21 35.08 34.96 34.32 33.79 33.23
41.86 41.96 40.64 39.60 39.13 38.62 38.11 37.39 36.86 37.88 38.29 38.55 37.99 37.28 37.56 35.57 33.61 32.82 32.80 32.98 31.68 30.48
42.00 41.33 39.56 38.64 38.31 38.67 38.85 38.52 38.05 37.74 37.63 37.83 37.81 38.16 36.02 34.38 32.23 31.02 29.99 30.02 29.95 28.50
41.59 40.15 39.91 38.87 37.63 37.69 38.42 39.34 38.65 37.82 37.12 36.62 37.57 36.34 36.06 33.26 30.26 30.66 29.20 28.53 27.67 27.23
40.77 39.70 38.94 37.48 36.76 37.01 37.22 37.15 37.06 36.38 36.48 35.86 35.93 35.22 35.40 33.54 28.99 28.66 28.03 27.61 26.52 26.93
38.93 37.56 37.72 37.26 37.46 37.42 37.48 36.52 34.68 35.15 36.07 35.26 35.21 34.76 34.42 32.20 27.39 27.46 27.51 26.76 26.01 25.53
37.52 37.34 36.95 37.37 36.74 37.17 36.17 35.39 34.85 35.32 34.60 34.20 32.99 34.50 33.35 29.65 25.91 26.77 27.24 27.95 27.52 26.28
38.04 37.94 37.11 37.40 37.04 36.22 35.64 34.41 34.35 34.10 33.87 34.10 31.41 33.77 33.19 29.86 25.28 26.08 26.00 26.35 26.27 28.96
38.74 38.23 38.22 36.52 36.00 34.76 33.22 31.96 30.60 31.11 31.07 30.05 29.76 29.50 33.15 32.57 26.85 26.30 25.72 26.01 24.70 25.02

GFSNIL_sfc_wetblb_027.txt.gz
Wetbulb
43.51 44.56 43.10 41.61 39.71 40.09 40.32 40.25 40.52 40.41 40.64 39.31 38.62 39.21 39.74 38.88 37.81 37.06 36.16 35.41 34.87 35.34
42.52 43.44 42.35 41.88 41.71 41.10 40.99 41.04 40.68 40.13 39.72 38.16 37.55 36.34 37.13 37.61 37.37 37.16 36.26 35.76 34.54 34.27
43.56 43.11 41.89 40.96 40.79 40.91 41.26 41.62 40.17 39.62 39.43 37.44 36.50 37.22 37.02 37.68 38.59 36.51 35.15 34.97 34.41 33.45
41.08 41.55 41.04 41.33 41.35 41.20 41.22 40.40 40.29 39.68 38.58 36.75 36.60 36.90 36.14 35.09 34.87 34.51 34.35 34.25 33.95 33.70
41.07 41.42 40.65 40.29 41.28 41.04 40.35 39.86 38.08 37.92 36.98 36.86 37.73 37.14 35.59 34.07 34.65 33.98 33.55 32.83 32.87 32.85
40.92 40.88 40.75 39.58 39.04 38.34 37.85 37.34 36.97 36.75 36.48 37.26 37.49 36.40 34.78 34.26 34.46 34.23 33.53 33.26 32.35 32.53
41.34 41.92 41.59 41.02 38.13 37.94 37.46 36.41 35.88 36.55 37.20 38.10 36.31 36.23 36.02 34.79 33.07 32.56 32.63 32.34 32.01 31.58
43.44 42.71 41.96 40.31 38.56 37.25 37.00 37.00 36.75 37.15 37.86 36.46 36.20 36.66 35.14 34.09 32.09 31.04 30.51 30.30 29.83 28.67
43.47 41.68 39.43 38.74 38.06 37.18 37.86 38.40 37.68 37.54 36.77 35.35 36.68 36.44 36.94 34.01 30.88 30.59 29.60 28.85 28.18 27.39
40.57 38.68 37.74 37.55 37.55 37.45 37.11 37.54 37.31 36.66 36.16 35.71 34.87 35.99 36.85 35.35 29.85 28.93 28.32 27.72 27.43 26.82
38.26 37.70 38.08 37.89 37.43 37.42 38.05 37.42 36.42 35.34 35.11 34.18 34.66 35.55 35.90 34.22 28.64 27.69 27.06 27.29 26.38 25.56
37.99 37.27 37.61 37.19 37.35 38.02 37.56 35.91 34.95 34.30 33.35 32.93 32.52 35.01 35.15 32.11 26.31 26.10 26.44 27.76 27.07 26.39
38.69 38.28 37.68 37.74 37.71 37.69 36.05 34.38 33.44 32.17 31.82 32.67 30.57 33.23 34.86 31.85 25.38 25.67 26.28 26.39 27.05 31.14
40.39 39.63 38.69 37.96 37.35 36.08 33.51 31.37 28.93 29.10 29.28 29.63 30.02 29.98 34.17 34.22 26.71 26.88 26.69 26.30 25.72 26.12

GFSNIL_sfc_wetblb_030.txt.gz
Wetbulb
50.43 48.91 47.38 41.50 40.46 40.16 39.92 39.88 40.33 40.81 39.50 40.49 41.36 39.92 40.30 39.25 37.50 37.37 36.50 35.39 34.92 34.86
47.91 46.71 43.34 43.52 41.26 40.36 41.23 40.73 40.86 40.84 41.17 40.44 38.58 38.82 39.10 39.16 38.04 37.57 36.16 35.62 35.18 34.27
45.73 45.68 44.46 41.91 40.72 41.27 41.81 40.96 41.00 40.96 39.99 39.10 38.59 38.48 38.29 37.50 37.71 36.94 36.04 35.58 34.13 33.73
43.30 43.18 43.84 42.97 42.70 41.04 41.15 41.46 41.22 39.95 39.24 38.40 37.93 37.92 36.91 37.12 36.55 34.76 33.76 34.09 33.91 33.63
43.16 43.62 42.00 41.15 41.14 41.35 40.94 40.61 40.06 39.57 38.25 37.97 38.09 37.48 36.05 34.39 34.44 33.65 33.36 33.36 32.88 33.18
41.27 39.82 39.66 41.22 41.14 40.89 40.09 39.35 38.52 38.31 37.76 37.44 37.62 36.60 35.10 34.42 34.12 33.46 33.17 32.92 32.16 32.16
39.72 39.95 40.36 41.22 40.11 39.95 39.37 38.46 37.87 38.18 37.81 37.80 37.79 36.93 36.15 34.85 33.39 32.99 32.69 32.82 32.05 31.60
39.82 40.46 40.64 41.39 39.72 39.10 38.78 38.52 38.21 37.93 37.90 38.12 37.81 36.66 35.25 34.21 32.81 31.56 30.91 31.21 30.99 31.09
42.21 41.75 39.79 39.27 39.16 38.68 38.24 38.03 37.81 37.18 37.27 37.36 37.27 36.25 36.88 35.34 31.89 31.05 30.17 29.26 29.04 28.44
41.99 40.30 38.54 38.63 37.97 37.45 37.12 37.59 37.69 38.09 37.74 36.90 36.21 36.13 36.47 36.24 31.72 30.12 29.76 28.87 28.41 27.71
38.89 38.18 38.98 38.16 37.61 37.84 38.35 38.43 38.23 37.40 36.52 35.45 34.78 35.35 35.78 35.16 31.87 29.38 28.75 28.01 27.61 26.81
38.98 38.57 38.63 37.77 38.12 38.48 38.27 37.69 36.77 36.36 35.40 33.51 32.16 34.29 34.65 34.00 29.50 27.97 27.58 27.91 27.69 27.00
39.37 38.68 38.26 38.48 38.15 38.41 37.49 36.08 35.58 33.20 32.27 31.97 30.30 32.75 34.13 34.11 27.06 26.47 27.05 26.81 27.81 31.37
40.67 39.88 39.02 38.26 38.00 37.48 36.43 33.36 30.24 29.47 29.20 29.20 30.03 30.08 33.29 34.24 28.42 27.64 27.19 28.02 27.92 27.85

GFSNIL_sfc_wetblb_033.txt.gz
Wetbulb
55.74 55.17 51.95 48.31 47.50 46.67 46.63 45.79 46.16 46.07 46.70 46.93 45.75 45.02 46.39 46.24 46.06 45.94 45.47 44.51 43.96 43.85
56.77 55.20 52.01 49.77 49.92 48.31 47.16 45.40 45.34 45.80 43.13 45.37 45.26 43.48 44.44 45.18 45.19 45.61 45.76 44.86 44.54 43.28
57.26 55.16 54.06 51.26 48.93 46.65 46.27 45.68 45.32 44.84 44.90 44.32 41.81 44.03 43.52 44.33 44.28 44.57 45.06 44.67 43.47 42.78
55.81 54.73 52.33 49.58 48.07 47.25 46.76 45.93 44.54 43.35 44.20 40.89 41.67 42.26 42.34 42.85 43.20 43.07 44.20 43.47 41.79 41.63
53.26 51.45 49.93 49.00 48.45 48.09 45.90 45.11 43.73 42.97 40.80 41.52 41.02 41.72 41.18 40.75 41.93 42.58 41.96 41.37 40.94 40.60
50.35 49.99 49.26 48.93 48.63 46.18 44.94 43.45 42.72 42.05 40.55 40.23 41.42 41.29 41.15 40.66 41.32 41.05 41.07 41.10 40.62 40.62
49.02 49.02 48.85 47.85 44.84 44.13 44.28 40.65 40.99 41.64 42.38 42.52 42.09 41.08 40.41 41.51 40.43 40.27 40.16 40.19 40.15 40.49
46.78 46.27 45.71 44.27 42.88 42.19 42.47 41.54 40.83 41.88 40.73 40.94 40.43 40.88 41.46 41.57 40.63 40.27 39.78 39.90 39.58 40.03
45.59 44.86 43.59 42.82 41.27 40.69 39.84 39.57 41.47 41.03 40.52 40.31 40.76 38.61 37.40 37.46 39.97 39.89 39.03 39.41 39.55 39.31
44.59 42.50 41.78 40.94 39.74 38.54 38.74 40.15 40.50 40.84 41.28 40.50 40.67 37.20 36.81 36.24 38.71 39.68 39.94 39.29 38.99 37.96
42.59 40.41 39.35 39.18 39.14 39.75 41.35 40.74 40.86 41.55 41.23 39.97 39.21 36.60 35.98 34.80 38.52 38.88 38.82 38.82 38.56 37.80
41.16 40.57 40.34 39.54 39.45 39.75 40.06 40.90 40.99 39.96 38.27 37.47 39.40 36.31 34.86 34.66 37.34 37.03 37.31 37.62 37.14 36.82
41.91 41.70 41.20 41.66 41.61 40.76 40.64 39.97 37.89 36.77 37.86 37.83 36.79 35.17 34.06 34.73 36.96 35.92 35.79 36.44 35.39 32.63
42.47 41.55 41.28 40.39 39.66 38.85 38.19 37.95 38.26 36.48 37.00 36.97 36.45 36.52 34.25 34.38 35.40 35.51 34.74 34.76 35.08 34.99

GFSNIL_sfc_wetblb_036.txt.gz
Wetbulb
61.82 61.70 59.66 59.89 53.38 49.08 48.27 48.82 51.26 51.37 52.17 51.44 48.67 49.97 49.44 48.21 47.29 48.04 48.60 47.91 47.49 46.66
60.58 60.58 60.37 59.38 52.52 50.60 51.71 51.76 51.52 51.52 50.13 49.34 49.41 48.69 48.79 47.02 47.88 48.17 49.04 48.33 47.29 46.25
60.64 60.63 60.57 59.76 55.11 53.82 53.41 53.64 51.11 50.38 49.24 47.46 46.81 47.67 47.32 44.76 47.77 48.24 48.26 46.83 46.32 45.69
61.84 61.31 60.77 59.57 56.43 54.84 54.05 52.73 48.70 49.78 48.32 45.88 46.89 45.70 45.18 46.70 46.99 45.38 45.49 46.38 45.13 44.40
61.66 60.81 59.25 57.27 55.61 54.68 52.70 51.54 50.36 50.11 47.33 44.22 45.56 45.91 44.44 44.56 43.50 43.72 43.82 44.75 44.96 43.86
58.16 57.76 56.74 54.77 53.87 52.55 52.20 51.44 50.89 49.65 46.42 43.26 44.15 44.23 45.20 43.17 41.54 42.47 43.66 44.14 43.82 43.69
56.74 54.75 53.71 53.15 52.54 52.22 51.51 51.06 49.24 44.00 43.09 43.31 44.39 43.81 43.11 43.10 43.18 43.89 42.73 43.04 43.32 43.00
55.69 55.49 54.98 54.00 52.82 51.52 49.42 46.25 43.04 41.68 42.29 41.98 42.41 42.80 43.30 43.45 41.86 42.56 42.01 42.92 43.42 43.72
51.78 51.28 50.31 48.26 46.08 43.75 42.44 41.21 40.96 40.77 42.34 42.23 41.82 39.00 38.37 39.16 40.32 42.15 41.91 41.81 43.13 43.66
49.55 48.00 47.06 44.35 42.17 40.34 39.74 41.32 41.25 41.75 42.20 42.43 43.32 39.01 38.56 37.46 38.32 40.25 41.63 41.75 41.94 41.89
47.44 46.07 45.26 43.80 41.61 41.20 42.08 41.51 41.64 41.96 43.14 43.35 42.39 38.33 37.26 36.59 40.98 41.31 41.40 41.62 41.36 41.23
45.95 44.79 44.30 43.67 43.22 43.50 44.71 44.45 43.97 42.59 42.55 41.54 39.65 37.57 37.67 36.43 39.78 39.04 39.58 40.58 40.86 40.89
45.90 45.44 44.71 44.50 44.05 44.76 45.48 42.59 40.93 39.11 38.59 38.23 41.65 37.97 36.16 36.15 38.88 38.03 38.79 39.77 39.84 36.35
45.11 44.22 43.97 42.83 42.51 41.93 42.16 41.59 41.44 40.11 40.82 40.83 39.98 40.10 36.20 35.67 37.10 37.53 38.16 37.68 38.34 39.60

GFSNIL_sfc_wetblb_039.txt.gz
Wetbulb
61.24 60.78 61.91 63.13 61.16 60.15 59.76 57.45 52.70 50.57 50.94 51.62 54.03 54.22 52.53 49.64 51.39 50.71 50.42 49.27 48.70 48.77
62.08 61.82 62.52 61.94 61.69 60.35 55.73 51.38 50.27 50.59 50.41 52.32 52.92 50.26 50.34 49.90 47.51 49.22 49.71 48.85 50.00 48.49
62.10 62.91 63.00 62.48 60.61 58.22 54.41 52.98 52.07 51.69 51.60 51.69 50.47 50.11 50.37 47.35 48.76 47.86 48.72 49.53 48.22 47.30
61.58 61.76 61.80 61.27 59.86 56.67 54.56 53.75 52.90 52.79 51.80 49.38 49.11 49.69 48.39 46.92 46.02 47.16 47.77 47.16 45.97 45.88
62.88 62.04 60.98 60.42 59.24 57.60 55.97 55.31 54.29 52.12 49.64 48.61 49.30 48.13 44.83 43.02 46.06 45.11 42.91 43.54 44.44 44.40
61.51 60.89 60.16 59.16 58.01 56.59 55.58 54.20 52.48 49.85 48.91 48.76 46.74 45.17 44.30 45.02 43.74 43.77 43.80 43.76 44.54 44.39
58.94 58.08 57.39 56.01 55.09 53.69 53.07 52.22 51.23 50.38 48.30 46.02 44.69 43.62 43.13 43.69 43.71 44.47 43.08 44.34 44.37 44.07
58.05 57.15 55.37 53.75 52.99 52.85 52.30 51.00 46.05 45.30 43.67 44.03 43.36 42.96 42.55 43.20 43.75 43.80 41.76 42.68 43.83 44.76
56.84 55.99 55.15 54.48 52.78 51.68 47.04 45.70 43.34 42.73 41.98 42.60 41.37 39.48 39.80 40.46 44.47 42.50 40.91 40.72 42.91 43.98
52.76 51.39 50.20 48.56 46.70 44.79 43.81 44.40 42.43 43.08 41.85 41.72 42.04 39.17 38.88 38.02 42.57 39.74 39.24 39.55 41.18 42.70
50.43 48.76 47.57 46.64 45.27 44.32 44.19 43.48 41.85 41.98 42.00 43.43 43.54 38.79 38.52 37.00 38.70 39.67 42.06 42.38 41.86 41.89
48.55 47.49 46.73 45.68 45.24 45.09 44.68 44.35 44.05 44.57 43.54 42.52 42.97 38.43 37.79 37.84 41.51 40.01 39.81 40.64 41.01 40.82
48.25 47.47 46.28 44.87 44.20 44.47 44.29 43.26 43.72 42.64 41.82 40.15 42.81 38.57 37.72 37.51 39.35 37.72 38.27 39.22 39.96 37.26
47.20 45.85 45.23 44.92 44.68 44.43 43.65 43.41 42.53 41.33 41.98 41.42 40.40 40.20 36.15 35.26 36.73 35.45 33.57 34.31 35.69 37.52

GFSNIL_sfc_wetblb_042.txt.gz
Wetbulb
63.01 61.65 61.45 61.01 60.21 58.68 57.85 57.81 57.91 57.08 53.19 51.78 51.65 51.21 51.25 51.63 49.73 48.52 47.40 47.49 45.89 45.31
62.60 61.90 61.23 60.54 61.05 59.02 58.57 57.08 54.09 52.84 51.20 50.60 51.23 50.96 49.42 48.11 48.11 47.19 46.54 46.36 45.51 45.89
62.55 60.82 60.10 60.80 60.36 59.44 57.48 53.14 52.12 51.20 50.39 50.11 49.85 49.11 48.21 48.05 47.39 46.17 45.70 45.53 45.99 45.01
62.03 61.10 61.43 61.27 60.75 59.86 53.89 53.30 51.78 50.98 50.11 49.36 48.70 48.22 47.35 46.27 45.94 44.85 45.10 44.59 44.02 44.31
61.28 60.30 59.85 59.76 59.69 56.10 54.15 53.17 52.51 51.54 50.33 49.76 48.48 48.03 46.30 45.59 43.56 43.93 42.86 43.15 43.86 44.28
59.58 60.19 59.59 59.24 57.60 55.15 53.98 53.11 52.68 51.26 48.95 47.79 47.82 46.20 43.86 43.45 43.91 43.19 43.47 43.61 43.43 43.20
58.79 58.04 56.24 55.19 54.42 53.96 53.59 51.82 50.05 48.21 47.72 46.64 44.60 44.06 43.19 43.44 42.46 41.98 42.74 43.57 42.80 43.25
57.27 56.29 54.87 53.91 53.28 52.33 51.54 50.79 47.94 45.61 43.79 43.19 42.77 43.21 43.04 42.72 41.94 41.65 41.88 42.65 42.16 42.70
56.68 55.30 54.77 53.34 52.23 50.08 47.53 44.68 43.42 42.56 42.05 41.69 41.85 39.22 40.54 41.38 41.45 41.75 41.44 40.22 40.68 41.60
54.72 53.01 50.50 48.58 46.63 44.20 43.01 42.62 41.68 41.60 41.94 40.89 41.72 39.35 39.38 38.44 40.04 40.26 39.39 37.89 39.34 39.25
50.24 48.15 46.62 45.65 43.92 43.09 42.54 41.40 41.48 40.95 41.22 40.82 41.49 38.51 38.47 37.18 38.62 39.00 39.41 39.21 38.97 37.79
48.23 46.35 45.43 43.79 42.99 42.66 42.31 41.64 41.14 41.66 42.19 42.35 40.40 38.25 38.02 37.95 37.73 37.80 35.89 37.87 37.06 36.74
47.49 46.51 45.05 44.64 44.27 44.10 44.06 43.15 42.81 41.89 41.40 40.30 40.63 38.62 37.29 36.65 33.06 32.14 30.58 32.47 33.87 34.07
46.73 44.73 44.16 43.59 43.67 43.21 42.52 41.70 39.63 39.22 38.70 39.33 35.69 33.35 33.24 32.38 29.58 27.43 27.27 27.68 28.22 28.72

GFSNIL_sfc_wetblb_045.txt.gz
Wetbulb
60.17 59.72 58.61 58.87 58.50 58.48 57.96 57.58 56.70 55.56 55.01 55.11 54.38 52.24 50.59 51.44 50.22 49.76 48.63 46.47 46.27 44.89
60.71 59.67 58.89 58.21 57.81 58.09 56.94 55.79 55.17 54.93 52.85 52.04 52.16 50.76 50.17 50.05 49.69 48.19 46.89 46.50 45.08 44.77
61.06 59.22 58.74 58.19 57.14 56.16 55.43 53.80 53.54 52.44 51.62 50.06 50.30 49.84 49.21 48.18 48.13 46.87 45.98 45.82 44.55 44.60
60.42 59.44 58.11 57.94 57.14 56.92 53.20 52.10 51.80 51.17 49.56 49.63 48.94 48.69 47.85 47.76 46.56 45.21 44.43 44.60 44.13 44.22
60.14 59.09 58.47 58.29 58.12 57.28 54.17 52.71 51.64 50.95 50.17 49.33 48.66 47.63 47.20 45.99 45.46 44.98 43.46 43.63 43.63 43.49
59.30 59.15 59.00 58.47 56.46 53.52 52.55 52.38 51.84 50.78 49.76 48.70 47.82 46.73 46.22 44.20 43.55 43.41 43.49 43.32 43.36 42.95
57.75 57.87 56.36 54.96 54.07 53.09 53.25 51.63 51.03 50.03 48.80 47.99 46.65 44.96 43.97 43.54 42.79 42.70 42.82 43.39 42.94 42.90
54.24 54.44 53.66 53.67 53.15 52.92 52.12 50.57 48.64 47.21 45.97 44.58 43.51 43.31 43.16 42.75 42.14 41.54 41.42 41.92 42.77 42.25
54.20 53.53 53.27 52.64 51.44 50.46 48.11 46.48 44.92 43.08 43.02 41.99 42.47 39.47 40.46 41.22 41.09 41.04 40.73 40.45 40.45 40.87
54.36 53.28 51.33 48.39 46.05 44.27 43.10 42.31 41.59 41.43 41.32 41.00 41.34 39.28 39.54 39.18 40.53 40.23 39.34 39.34 39.02 39.56
48.34 46.07 44.86 44.34 43.04 41.90 41.19 39.94 37.90 38.63 39.43 40.33 40.55 38.60 38.37 36.88 38.60 38.61 39.22 39.23 38.13 34.71
45.06 43.07 41.82 40.49 39.68 39.41 39.36 38.89 38.45 39.14 38.62 37.86 37.30 37.75 37.85 38.30 38.64 37.30 32.60 33.92 32.51 31.94
44.27 42.67 41.30 40.32 39.83 39.60 39.14 39.13 40.12 40.33 40.59 39.54 38.94 36.76 36.77 35.39 29.64 28.35 26.55 27.92 29.63 31.21
43.99 42.68 42.33 41.66 41.40 40.88 40.46 40.87 38.74 36.77 36.27 33.47 31.74 31.01 32.20 30.51 26.14 25.68 26.05 25.86 25.38 25.70

GFSNIL_sfc_wetblb_048.txt.gz
Wetbulb
57.26 58.28 57.00 56.46 57.00 57.35 57.56 57.26 58.43 57.72 56.18 54.94 55.10 53.15 51.68 51.54 50.91 49.69 49.29 48.25 47.84 47.06
58.30 58.45 58.43 57.99 57.33 57.87 57.56 56.11 55.15 56.09 54.55 53.82 53.97 52.09 50.00 50.42 50.15 49.63 48.57 47.68 46.46 44.86
57.58 58.35 58.73 57.70 57.38 57.60 57.01 55.66 54.58 54.22 53.99 52.46 51.38 51.53 49.79 49.51 49.57 48.61 47.26 46.48 44.62 44.51
58.92 58.98 59.08 58.56 58.20 57.82 56.31 55.12 54.78 54.01 52.12 51.22 50.93 50.49 49.44 48.43 48.09 46.88 45.00 44.92 44.94 44.60
59.66 58.26 58.29 58.18 58.36 57.52 56.35 54.76 54.44 52.77 51.18 50.99 49.80 49.33 48.26 47.39 47.19 45.38 43.47 44.32 44.11 43.87
58.80 58.40 58.67 59.13 59.95 60.21 55.43 53.74 53.09 52.31 50.81 49.79 49.11 47.98 47.72 47.24 45.50 44.67 44.16 44.00 43.73 43.87
59.33 58.87 59.07 59.50 59.29 57.52 54.58 52.77 51.74 51.17 50.63 49.63 48.47 47.25 46.07 44.37 43.67 43.70 43.64 43.95 43.68 42.88
59.35 59.48 58.12 56.83 54.15 53.04 52.36 52.03 50.56 49.75 48.98 47.56 46.09 44.87 43.67 43.40 43.02 42.89 42.50 42.69 42.81 42.92
57.39 56.89 54.95 54.27 53.45 51.87 50.40 49.77 48.06 47.46 45.21 43.67 43.13 39.72 40.46 42.07 42.02 41.73 41.24 40.51 41.18 41.20
55.41 54.83 53.61 52.08 50.32 48.45 47.63 46.68 43.96 43.24 42.78 42.26 41.97 39.04 39.69 39.11 40.98 40.31 39.85 39.53 39.69 39.59
52.44 50.52 49.65 48.76 46.15 45.04 45.16 44.55 42.69 41.45 41.72 41.80 41.21 38.50 38.51 37.52 38.85 38.72 38.89 38.15 34.93 33.73
48.44 46.39 45.76 44.24 44.04 42.59 41.11 40.25 39.75 40.07 39.91 39.59 38.48 37.86 37.10 38.06 37.96 35.39 33.34 32.64 31.93 30.26
45.03 43.57 40.95 39.58 38.88 39.20 39.56 38.54 38.14 37.15 36.75 37.08 36.55 36.99 37.42 36.08 32.89 28.64 26.37 27.67 27.79 29.85
41.94 40.56 39.86 38.95 38.60 38.32 38.41 38.40 37.05 34.78 33.30 32.84 33.95 33.42 33.55 31.94 26.79 26.84 26.39 25.58 25.23 25.47

GFSNIL_sfc_wetblb_051.txt.gz
Wetbulb
53.30 54.56 55.42 55.26 54.67 54.07 54.70 55.69 56.91 57.84 57.84 57.70 57.46 57.53 55.77 54.62 53.62 51.89 50.58 49.18 48.96 48.35
52.80 54.01 55.26 56.52 55.71 55.38 55.44 55.79 55.45 57.97 57.22 57.23 56.19 55.23 53.16 52.56 50.91 50.51 49.94 49.18 48.30 47.33
53.74 55.25 55.95 56.83 56.91 56.06 56.87 55.83 54.65 56.03 55.47 54.63 54.20 52.72 50.68 49.51 50.40 49.81 48.97 48.38 47.06 44.91
54.38 55.73 56.48 56.91 57.31 57.33 56.74 56.75 56.01 55.41 55.19 54.36 52.51 51.53 49.88 49.30 49.51 49.08 47.71 46.32 45.40 44.67
55.44 56.36 56.48 56.78 57.72 57.90 57.64 56.75 56.69 56.23 55.31 54.34 52.76 51.63 50.05 48.52 48.65 48.19 46.12 45.20 44.62 44.02
55.77 56.53 56.93 57.85 58.46 58.59 58.26 57.68 57.23 55.19 53.91 52.68 51.83 50.89 49.15 48.89 47.58 46.43 45.52 44.88 44.29 44.11
55.87 57.17 58.39 58.62 58.37 58.41 58.39 57.66 54.10 53.17 53.10 53.04 50.61 49.87 48.73 48.60 46.24 45.02 44.38 44.61 44.43 44.44
56.77 57.76 58.07 57.84 58.23 58.63 57.66 55.93 53.80 51.37 51.62 49.64 49.50 48.21 47.79 45.47 44.19 43.87 43.25 43.54 43.58 42.87
57.49 57.52 57.36 57.56 58.35 56.11 53.82 53.49 52.28 51.63 50.44 48.28 47.67 41.30 40.98 42.97 43.36 43.29 42.59 41.65 41.72 41.85
57.56 57.61 57.42 56.27 53.43 52.87 51.45 49.76 47.94 46.32 47.07 46.19 43.50 39.39 40.22 40.02 42.48 41.81 41.31 40.80 40.49 39.39
57.44 56.75 53.78 52.29 50.65 48.19 47.38 46.12 44.79 44.32 43.87 44.29 41.87 38.68 38.69 38.04 40.37 39.89 39.20 38.56 37.62 33.50
53.34 51.01 50.31 47.98 46.53 45.22 44.13 43.52 43.66 42.86 43.75 41.82 39.60 37.80 37.35 38.59 38.30 35.35 32.86 32.59 32.00 31.32
49.53 48.92 46.70 45.44 43.59 43.46 42.80 41.46 40.26 38.58 39.29 38.63 38.57 36.80 37.10 36.45 34.25 30.43 29.07 28.83 28.72 29.65
45.76 44.37 43.03 40.59 40.46 39.70 39.51 38.64 35.39 32.56 33.10 34.49 35.90 35.76 35.66 34.42 31.67 29.63 27.58 26.40 24.34 24.75

GFSNIL_sfc_wetblb_054.txt.gz
Wetbulb
50.32 50.76 51.45 51.75 51.97 52.36 52.81 52.92 53.35 54.50 55.23 54.79 55.47 55.33 56.24 55.90 55.01 54.02 53.12 52.06 51.41 49.96
51.31 51.33 51.26 52.38 53.40 53.70 53.54 53.99 53.23 54.73 56.28 56.72 56.78 56.56 56.58 56.44 55.64 53.70 52.97 52.06 50.29 49.20
51.19 51.69 52.25 52.52 53.56 54.11 54.54 53.27 53.21 53.42 54.95 56.22 57.09 57.30 57.02 56.06 54.20 51.68 50.57 50.56 49.23 47.70
51.21 51.42 51.92 52.94 53.70 54.68 54.91 54.54 54.38 54.48 54.91 55.59 55.25 55.30 54.22 54.45 52.55 51.51 49.87 49.41 48.48 46.88
52.29 52.42 52.27 53.00 54.66 55.25 55.72 56.40 56.64 56.48 56.08 55.77 54.67 53.79 53.12 51.94 50.68 50.21 48.31 47.44 46.68 45.30
52.64 52.81 52.86 54.14 55.25 56.10 56.20 56.55 56.65 56.92 56.02 55.87 55.06 53.30 52.75 52.90 51.20 49.95 48.31 46.76 46.14 44.84
52.82 53.62 53.80 54.70 55.22 55.86 56.96 56.58 57.23 56.04 56.46 55.63 54.91 53.79 52.69 51.56 50.16 48.50 46.99 47.06 46.21 45.04
52.67 53.59 54.21 54.97 55.78 56.21 56.91 57.01 57.31 57.15 56.38 54.83 53.57 51.88 50.98 49.93 48.58 46.92 45.84 45.24 44.84 44.96
53.11 53.33 53.64 54.72 55.51 56.56 57.09 57.31 57.53 55.82 54.88 52.05 51.15 44.90 43.70 47.02 46.52 45.57 45.01 42.93 42.76 42.52
54.57 54.30 54.61 55.39 56.63 56.82 56.90 56.84 53.78 52.55 51.75 51.09 50.69 43.96 41.28 41.56 44.41 43.78 43.12 41.92 41.33 40.33
54.50 55.07 55.27 56.66 56.50 55.87 53.13 51.47 50.08 47.42 48.47 46.15 42.46 40.12 39.36 39.51 42.07 41.20 40.92 40.67 38.29 35.00
54.10 54.63 53.35 52.28 50.48 49.41 47.06 46.32 45.41 44.40 43.88 43.16 39.74 38.46 38.25 39.22 38.52 36.03 34.07 33.84 33.62 32.19
51.90 50.60 49.17 46.82 45.36 44.51 44.50 42.30 40.90 39.95 41.12 38.95 38.00 37.28 37.44 36.90 34.28 31.29 29.73 29.68 30.27 30.75
48.37 45.96 43.98 41.93 42.27 41.70 39.89 37.23 35.25 33.61 34.18 36.18 36.90 35.96 36.02 35.32 32.96 30.27 28.36 26.83 26.07 26.70

GFSNIL_sfc_wetblb_057.txt.gz
Wetbulb
57.31 57.00 57.23 57.10 56.96 56.86 55.72 56.31 58.62 57.68 58.36 58.57 59.15 59.54 59.89 60.22 59.87 59.56 58.96 57.99 55.35 53.64
55.66 55.99 56.07 57.11 57.37 57.42 57.63 57.24 57.29 57.63 58.51 59.14 59.17 59.49 59.75 59.90 59.53 59.00 58.41 56.34 56.00 54.57
55.39 55.45 55.95 56.47 56.39 56.79 57.40 57.59 57.55 57.52 58.48 58.85 59.02 59.26 59.30 59.94 59.57 57.79 57.43 56.52 55.07 54.72
55.55 55.95 56.06 56.00 56.31 56.85 57.80 57.62 57.00 57.12 57.45 57.68 58.57 59.54 59.64 59.62 58.19 56.58 56.20 57.31 56.16 56.79
55.94 55.76 55.72 55.70 56.39 57.00 56.90 58.05 57.83 58.23 57.80 58.11 58.71 58.33 58.55 57.44 56.97 55.85 54.65 54.95 53.70 54.17
54.76 54.56 54.08 54.00 54.87 55.36 56.15 56.50 58.15 58.57 58.61 57.86 57.76 56.74 55.31 56.25 55.75 54.83 54.25 53.38 51.95 52.28
54.77 54.67 54.61 55.20 55.19 55.14 55.80 55.87 57.26 57.76 58.42 59.02 58.59 57.23 55.62 54.65 54.67 54.27 52.71 52.20 52.09 51.08
55.45 55.70 55.89 56.08 56.20 56.48 56.68 56.00 57.19 57.66 57.36 58.18 58.29 57.62 57.51 55.45 54.18 52.71 51.04 50.44 49.39 49.53
56.03 55.77 55.89 56.26 56.29 56.79 57.28 57.53 57.81 58.05 57.36 57.34 56.90 49.07 45.81 50.90 53.38 52.62 50.86 47.22 46.74 44.92
55.80 55.40 55.66 56.01 56.18 56.58 56.98 58.08 58.08 57.76 57.55 56.93 57.45 44.90 44.54 44.17 51.66 49.36 47.65 44.61 43.69 42.17
56.12 55.43 55.61 55.31 55.45 56.67 57.69 57.83 56.92 56.31 56.21 55.25 52.83 43.45 43.63 41.64 45.93 44.25 43.35 42.73 41.29 38.12
56.41 56.14 56.35 56.11 56.40 57.22 53.66 50.66 48.38 47.44 47.13 46.17 42.42 41.03 39.40 41.38 40.89 38.59 37.31 37.49 37.18 35.00
56.52 56.37 55.62 54.53 51.95 47.22 47.06 43.44 42.83 41.27 41.56 39.36 39.46 37.69 38.15 38.55 36.26 33.52 32.41 31.62 31.84 32.68
51.81 48.93 46.70 44.51 43.85 42.31 39.89 37.70 35.61 33.97 35.66 37.66 37.77 36.71 36.66 36.36 34.59 31.77 30.36 29.45 28.35 29.03

GFSNIL_sfc_wetblb_060.txt.gz
Wetbulb
60.30 59.43 56.02 56.81 57.01 56.76 57.06 58.63 58.22 57.60 60.52 60.53 59.14 59.62 62.08 61.30 61.00 61.53 61.51 61.39 61.47 61.04
60.16 60.03 59.74 59.14 58.04 57.92 59.50 57.45 56.97 57.33 58.36 60.20 60.70 60.57 60.99 61.29 60.73 61.63 61.75 61.42 61.68 61.42
60.70 60.53 60.82 61.26 60.43 60.12 61.19 60.90 59.68 58.90 59.09 59.71 60.11 60.38 60.38 60.93 61.36 61.34 61.92 61.55 60.86 61.12
60.01 60.47 60.86 60.43 61.21 61.20 61.82 61.36 60.75 60.52 60.08 59.62 59.91 60.74 60.91 60.83 60.69 60.47 61.34 61.89 61.59 59.79
60.20 60.08 59.76 60.01 60.18 61.99 61.26 61.82 61.49 61.05 60.89 60.49 60.71 61.57 61.04 60.93 60.06 60.38 60.61 60.81 59.67 58.39
59.44 59.76 59.76 60.07 59.97 60.22 60.17 60.72 60.47 60.68 60.76 60.66 60.78 60.75 60.69 60.25 60.32 60.67 58.84 57.79 57.68 56.33
59.48 59.83 59.93 59.88 59.95 60.32 59.87 59.07 59.12 60.28 60.16 59.95 60.51 59.83 60.19 59.68 59.91 58.53 56.89 55.69 55.56 56.21
59.60 59.47 59.35 59.25 59.38 59.45 59.46 59.18 59.18 59.37 59.85 60.28 59.10 59.45 60.42 59.19 59.09 56.96 56.10 57.03 55.29 54.65
59.24 59.02 58.80 58.81 58.83 58.91 58.86 58.42 58.63 58.84 58.81 59.34 59.11 50.48 46.69 53.38 60.05 57.62 56.30 55.48 53.92 54.34
59.12 58.79 58.82 58.81 58.54 58.30 58.42 58.81 58.61 59.32 59.25 59.53 60.55 47.33 45.16 44.98 58.10 56.58 55.72 54.81 52.24 47.77
59.15 58.72 58.93 58.72 58.23 58.65 59.16 58.95 59.21 59.42 59.69 58.22 58.05 46.41 44.79 43.89 53.53 55.11 52.88 50.76 47.35 44.77
59.40 58.90 58.63 58.01 58.42 58.77 59.02 59.05 59.08 59.01 59.19 58.98 57.23 44.07 43.34 43.28 45.20 42.12 39.60 40.48 40.05 39.00
60.16 59.04 58.99 59.28 58.83 58.99 58.88 57.11 48.98 42.70 43.33 40.16 42.98 38.98 40.39 42.84 40.16 35.66 34.17 34.23 35.18 34.84
59.76 59.45 59.54 57.68 53.50 48.63 42.62 38.98 36.62 34.92 35.64 36.84 37.69 37.16 37.20 37.06 35.54 33.12 31.85 30.95 30.96 32.00

GFSNIL_sfc_wetblb_063.txt.gz
Wetbulb
59.03 59.40 58.50 57.30 57.33 57.18 58.02 59.72 61.08 61.97 61.91 61.52 60.79 59.47 61.02 61.04 60.87 61.38 61.50 61.73 62.01 61.15
59.11 58.96 58.72 59.61 58.98 57.03 59.64 60.61 61.08 61.19 61.23 61.38 61.40 61.62 61.03 59.49 58.38 60.19 59.16 61.18 61.42 61.06
59.48 60.81 59.73 60.02 59.55 59.21 59.43 61.59 61.29 61.54 60.87 60.53 59.56 59.31 60.77 59.68 59.57 59.58 60.58 60.61 60.83 61.01
59.37 61.18 60.62 60.59 61.66 61.22 61.45 61.40 61.21 60.07 60.00 60.11 59.90 59.87 59.08 60.61 60.91 60.08 60.45 61.31 61.15 60.24
61.52 61.64 61.07 61.83 62.24 63.27 62.07 62.10 62.19 62.07 60.65 60.22 60.32 60.53 59.87 59.67 60.22 60.17 59.75 60.26 60.37 59.91
62.60 62.76 62.75 62.93 62.73 63.08 63.02 62.45 62.19 61.96 61.59 61.28 61.20 61.29 61.15 60.78 60.55 60.77 60.70 60.64 60.45 60.22
61.93 62.13 62.61 62.89 62.90 62.73 63.00 62.33 61.39 61.02 61.32 61.96 61.77 61.72 61.60 61.22 60.93 60.91 60.73 60.74 60.81 60.73
62.32 62.50 62.06 62.40 62.43 62.44 62.27 62.28 62.34 62.07 62.18 62.08 61.79 61.30 61.35 61.24 60.91 60.65 60.05 60.07 60.56 59.70
61.88 61.70 61.74 61.81 61.89 62.12 62.02 61.80 62.00 61.17 61.07 61.04 60.44 51.44 46.98 53.79 60.86 60.18 59.86 58.86 59.48 57.35
62.03 61.37 61.38 61.69 61.09 61.19 61.20 61.68 61.03 60.86 60.83 60.40 61.01 47.69 45.55 44.47 58.48 59.55 60.22 58.74 57.49 56.77
61.76 61.38 61.50 60.92 60.35 60.70 60.94 60.70 60.35 60.47 60.56 60.40 60.31 46.49 44.68 43.32 55.21 57.47 59.04 59.06 58.43 56.81
61.84 60.85 61.00 60.86 60.78 60.99 60.88 60.56 60.77 60.55 59.95 58.91 59.62 45.11 42.43 44.12 52.60 52.38 43.54 41.11 41.65 41.67
61.96 61.21 60.65 61.05 61.14 61.46 61.32 60.42 59.23 52.62 45.67 40.58 44.64 38.28 39.83 43.24 40.95 36.03 33.82 33.86 34.20 34.45
61.34 61.43 61.26 61.54 60.62 59.35 53.86 44.28 39.24 36.15 36.39 37.10 37.16 36.44 37.01 37.47 35.53 33.11 31.79 31.23 31.09 31.90

GFSNIL_sfc_wetblb_066.txt.gz
Wetbulb
57.36 57.10 57.25 57.20 56.16 56.28 56.53 56.29 56.80 58.29 58.77 58.85 58.65 58.86 58.66 57.45 57.31 57.53 57.47 57.47 58.00 57.81
57.67 57.10 57.06 57.44 57.59 57.29 57.32 57.04 57.35 58.70 58.53 59.04 59.24 58.57 57.85 57.40 56.65 57.13 57.57 57.56 57.62 57.39
58.05 58.63 58.16 57.50 57.17 57.02 57.31 57.34 57.11 58.46 58.93 59.01 59.18 59.20 58.22 57.37 56.79 56.30 56.81 57.08 56.77 57.63
57.89 58.38 58.73 57.90 57.65 57.63 57.55 57.63 57.46 57.86 58.39 58.63 59.01 59.02 57.94 57.31 57.08 56.51 56.03 56.13 56.47 56.55
57.99 58.34 58.63 58.60 58.78 58.92 58.18 57.80 57.65 58.36 58.63 58.69 58.64 58.61 58.20 57.59 57.69 56.75 55.90 55.89 56.03 56.20
58.48 58.07 58.54 59.55 59.21 59.24 59.07 58.84 58.21 58.60 58.25 58.23 58.22 57.92 57.66 57.15 56.64 56.24 56.40 56.69 56.50 56.39
58.81 58.84 58.44 59.47 59.99 59.43 60.25 59.44 58.88 58.66 58.33 58.38 57.84 57.68 57.63 57.37 56.51 56.26 56.37 56.62 56.84 56.91
60.18 60.61 60.48 59.91 59.93 60.18 60.13 60.08 60.06 59.27 58.67 59.10 58.97 58.79 57.73 57.31 57.04 56.70 56.42 56.81 57.17 57.49
59.72 60.46 60.13 60.22 60.46 60.55 60.28 59.82 59.80 59.22 59.18 58.46 58.67 51.24 47.16 52.73 57.64 57.58 57.24 56.70 57.48 57.71
60.32 59.64 59.85 60.06 59.90 59.46 59.24 59.37 58.93 58.97 59.03 58.66 59.06 48.21 46.16 44.76 56.51 57.91 57.67 57.12 56.78 56.59
60.86 59.98 59.82 59.54 59.04 59.11 59.17 58.68 58.54 58.60 58.61 58.45 58.57 46.21 44.61 42.38 51.47 55.25 56.05 55.93 55.44 54.99
60.82 60.21 60.07 59.09 58.56 58.93 58.44 58.21 58.11 58.50 58.12 57.71 56.87 38.82 40.62 43.23 52.41 53.53 43.71 38.31 38.38 40.16
52.22 60.28 59.54 59.46 58.85 58.76 58.86 57.80 55.78 42.84 40.18 37.51 39.14 37.08 40.14 42.81 43.66 36.57 33.43 33.13 33.48 34.62
45.18 48.32 50.25 54.51 52.47 55.04 44.33 39.04 35.96 34.11 33.97 34.50 34.86 35.82 36.73 37.81 35.59 33.28 31.75 31.42 31.30 32.12

GFSNIL_sfc_wetblb_069.txt.gz
Wetbulb
56.96 55.97 55.41 54.62 55.24 56.12 56.09 56.18 56.52 57.00 58.35 58.04 56.79 57.07 57.68 57.48 56.95 57.19 57.23 56.64 56.78 57.13
56.87 56.55 55.94 55.65 55.18 56.10 56.61 56.63 56.00 56.16 57.86 58.18 57.71 56.64 56.84 56.53 56.65 57.03 57.00 56.86 56.91 56.49
57.03 56.92 56.98 57.11 55.97 55.41 55.75 56.79 56.39 55.85 57.19 57.79 58.13 57.94 57.35 56.77 56.59 56.00 56.13 56.57 56.23 55.73
57.29 56.98 57.06 56.88 57.29 56.98 55.98 56.17 56.44 56.19 56.93 57.72 57.45 58.02 57.79 57.36 56.73 55.87 55.37 55.49 55.18 55.56
57.54 57.79 57.36 57.03 57.07 57.36 57.09 57.19 56.40 56.19 56.00 56.75 57.19 56.94 56.77 56.53 57.16 55.87 54.78 54.55 54.14 54.68
56.44 57.19 57.23 57.65 58.06 57.68 57.22 56.94 56.96 56.47 55.54 55.66 56.86 56.95 57.00 56.90 56.45 56.15 55.66 55.44 54.74 54.56
55.71 56.16 56.84 57.67 57.87 57.95 58.00 57.34 56.22 56.22 56.26 56.44 56.54 56.99 57.28 57.15 56.88 56.65 56.43 56.05 55.73 55.46
57.07 56.81 56.69 56.73 57.42 58.50 58.09 57.76 57.50 56.69 56.11 56.37 56.63 56.99 57.07 57.13 56.65 56.33 56.02 56.20 55.82 55.72
57.83 57.59 57.02 56.82 56.84 57.35 58.30 58.03 58.19 57.68 57.33 56.63 56.78 50.58 46.49 52.51 56.12 55.94 55.29 54.52 54.86 55.20
57.64 58.07 57.89 57.88 57.31 56.98 57.35 58.28 57.72 57.70 58.18 57.65 57.36 47.72 45.48 44.40 55.73 55.91 55.23 55.15 54.90 55.22
49.09 50.55 55.63 58.32 58.17 58.33 58.46 57.83 57.93 58.31 58.51 58.30 58.38 46.89 45.95 43.53 51.51 55.62 56.73 56.63 56.63 56.66
44.34 45.02 48.38 52.86 57.28 58.08 57.62 57.47 57.44 57.66 57.44 57.75 57.10 38.12 39.58 43.19 50.57 54.02 46.94 39.14 39.14 42.04
39.89 40.86 41.33 44.63 45.34 56.00 57.38 56.98 54.87 41.87 38.98 38.73 39.10 36.24 38.21 42.84 46.45 37.82 33.44 33.34 34.24 34.65
35.27 36.30 36.56 40.11 41.54 43.04 45.21 41.83 37.66 34.36 33.40 33.67 34.35 34.87 36.27 37.66 37.06 33.87 32.03 31.65 31.49 32.07

GFSNIL_sfc_wetblb_075.txt.gz
Wetbulb
54.77 55.90 55.68 55.77 56.13 56.33 56.60 57.27 57.56 56.58 57.48 57.48 57.57 57.69 57.58 57.16 56.54 56.32 55.52 54.89 54.52 54.62
54.81 54.54 54.88 54.59 55.58 56.13 56.66 56.97 56.64 55.81 56.49 57.23 57.29 57.33 57.19 56.73 56.18 56.45 56.22 55.98 55.06 54.60
55.15 54.77 53.78 53.03 53.10 54.60 55.11 55.82 55.21 55.74 56.20 56.13 56.88 57.27 56.81 56.67 56.56 56.30 56.43 56.25 55.73 55.54
54.99 55.27 55.70 53.99 53.05 53.73 53.91 54.24 54.50 55.72 56.16 56.59 56.46 56.85 56.36 56.09 56.25 55.85 55.80 55.97 55.14 54.95
55.05 56.21 56.21 55.84 54.42 53.69 53.73 54.40 54.95 54.58 55.29 56.19 56.71 57.02 56.29 55.94 56.36 55.56 55.24 55.76 55.56 55.19
54.09 54.47 54.95 56.04 56.35 55.82 54.39 53.85 54.53 54.99 54.66 54.51 54.99 55.58 56.07 56.67 56.14 55.91 55.73 55.78 55.48 55.33
54.21 54.59 54.79 54.87 55.43 56.09 56.74 55.77 55.36 55.28 55.34 55.54 54.75 54.57 54.90 55.56 55.82 56.11 56.19 56.11 55.81 55.56
54.94 54.77 54.57 54.61 55.33 55.61 55.55 56.17 56.55 56.15 55.58 55.49 55.61 55.24 54.73 54.73 54.32 54.23 54.14 54.58 54.66 54.97
48.25 51.60 55.48 55.11 55.19 55.45 56.08 56.10 55.70 55.51 55.71 55.80 55.79 48.72 45.87 50.38 54.80 54.74 54.54 54.02 54.35 54.65
44.26 45.09 45.70 47.73 50.38 54.34 55.41 56.15 56.27 56.36 56.15 55.78 55.77 46.72 45.09 44.35 53.76 54.66 54.64 54.66 54.90 55.06
39.97 41.44 42.06 43.47 44.19 44.48 45.90 48.76 54.59 56.07 56.48 56.26 55.82 37.08 39.74 42.60 52.27 54.37 54.90 55.30 55.27 55.30
36.47 37.30 37.57 38.51 39.05 40.54 42.83 41.56 40.91 37.35 36.70 39.07 36.49 34.86 35.63 37.04 47.92 53.21 53.93 54.59 45.33 39.40
33.92 33.79 34.15 35.84 35.89 37.01 36.78 34.55 32.76 30.76 31.11 31.98 31.85 33.76 35.29 36.56 40.12 44.00 44.34 35.03 33.66 34.02
31.24 31.54 32.01 33.06 33.87 34.05 33.03 32.12 30.37 29.55 29.40 30.02 31.18 31.61 33.58 35.07 34.51 33.33 32.30 31.32 30.45 31.31

GFSNIL_sfc_wetblb_078.txt.gz
Wetbulb
53.17 53.62 53.85 55.59 56.44 57.08 57.12 57.30 57.29 58.24 58.09 57.53 57.72 57.96 57.00 56.34 55.88 55.97 55.40 54.93 54.12 53.58
53.18 53.83 55.48 55.43 55.95 56.52 56.64 56.83 56.86 57.24 57.85 57.80 57.35 57.43 57.82 57.48 57.10 56.63 56.09 55.69 55.56 55.09
55.13 54.10 54.18 53.13 54.14 55.61 56.32 56.24 54.91 55.63 56.91 57.22 57.48 57.67 57.57 57.22 57.31 56.70 56.56 56.22 55.59 55.37
55.33 54.76 53.21 53.32 53.21 53.17 55.33 55.86 55.66 55.98 55.79 56.38 56.42 56.69 56.68 56.97 56.58 55.95 55.85 56.22 55.71 55.15
55.87 55.27 53.61 54.07 53.52 53.84 53.45 54.90 55.36 55.41 55.77 56.12 56.24 56.42 56.35 55.96 56.23 55.56 55.11 55.38 55.35 55.15
55.05 55.35 53.77 54.25 54.50 53.67 53.61 53.82 54.08 54.46 54.18 54.21 55.83 56.06 56.00 55.80 55.70 55.53 55.39 55.45 55.33 55.03
54.86 54.74 53.23 53.68 54.05 54.00 53.81 53.34 53.85 54.15 54.42 54.37 54.33 55.24 56.05 56.10 55.91 55.77 55.79 55.81 55.75 55.62
53.37 55.45 54.83 54.59 54.02 54.18 55.05 54.62 54.27 53.72 54.42 55.14 55.37 55.05 54.68 54.80 54.93 55.14 55.18 55.47 55.76 55.84
46.84 48.18 47.80 50.19 53.88 55.39 55.37 55.92 55.91 55.58 55.48 54.77 54.59 47.99 45.47 50.55 54.33 54.40 54.15 53.95 54.67 55.16
42.39 42.60 43.89 45.49 45.42 45.84 46.37 47.75 52.19 53.93 55.80 55.83 54.60 36.19 37.71 41.21 53.42 54.59 54.41 54.26 54.42 54.55
38.57 38.67 39.82 40.29 40.20 41.05 42.95 39.84 38.62 38.04 39.00 41.38 37.19 35.18 35.84 35.72 42.50 51.86 54.43 54.72 53.33 46.15
35.20 35.90 36.96 36.78 37.22 37.53 36.48 34.90 33.96 33.59 33.57 33.87 33.39 34.42 35.68 36.44 42.18 46.75 38.96 35.08 33.79 33.64
33.19 33.47 33.57 34.40 34.63 34.70 34.05 32.29 31.67 30.43 30.98 31.51 30.96 33.14 34.49 36.10 40.25 34.39 32.70 31.53 31.41 32.26
31.12 31.30 32.35 32.65 33.26 32.80 32.06 31.11 29.85 29.11 29.37 29.45 30.68 30.78 32.14 32.71 32.28 31.14 29.15 28.43 28.59 29.49

GFSNIL_sfc_wetblb_081.txt.gz
Wetbulb
59.03 58.92 58.28 59.09 58.80 58.68 58.78 59.20 58.65 58.52 57.48 57.06 56.98 57.15 57.38 56.88 57.61 58.65 58.08 58.30 59.16 57.80
58.17 58.56 57.95 58.44 59.06 58.53 58.94 58.55 58.24 58.35 57.95 57.16 56.66 56.82 56.06 56.42 56.31 56.37 56.25 56.47 57.42 56.84
57.13 58.03 58.24 57.58 57.47 57.76 58.07 59.26 58.10 57.86 57.55 57.33 57.01 56.53 55.61 54.93 56.61 56.53 56.61 56.75 56.23 56.09
56.15 56.64 57.12 56.87 58.02 57.99 57.89 57.62 57.96 57.89 58.26 57.42 56.95 56.56 56.62 56.77 56.68 56.00 56.71 57.29 56.53 56.17
56.35 56.15 55.58 56.72 56.86 57.11 57.34 58.47 57.32 57.00 57.59 58.07 57.40 57.65 56.83 56.11 56.78 55.77 55.82 56.46 56.59 56.15
56.27 56.10 55.41 56.81 57.49 56.48 56.66 58.03 58.58 57.95 57.00 57.13 57.89 56.99 57.02 57.43 56.76 56.65 56.54 56.60 55.99 56.34
55.55 56.13 56.22 56.91 58.20 57.55 57.48 56.96 56.87 57.17 57.18 57.60 58.22 58.12 57.85 57.22 57.31 57.13 56.94 57.81 56.79 56.73
49.86 54.75 55.78 56.16 57.62 57.83 57.52 56.51 56.45 56.65 57.34 57.82 56.97 56.22 56.59 56.80 56.67 56.33 56.61 57.74 57.85 57.60
44.91 45.46 47.00 48.32 48.20 50.69 50.85 50.01 55.52 55.16 55.08 54.98 50.19 36.80 37.35 44.47 56.84 56.57 56.29 56.01 56.43 56.62
41.48 41.75 42.54 43.27 43.80 43.89 42.36 42.41 41.61 41.03 44.02 38.67 37.15 35.66 36.86 36.48 46.93 52.24 55.02 55.18 54.11 54.13
38.86 39.03 39.73 39.51 39.66 38.82 37.69 36.29 36.23 36.12 36.78 35.68 34.92 34.76 35.76 35.90 43.19 47.28 38.64 36.93 36.70 37.41
36.19 36.46 37.23 36.33 35.51 35.35 34.53 33.36 32.73 32.56 32.47 32.39 32.77 34.09 35.03 39.32 39.58 35.17 33.24 32.82 33.06 33.08
33.85 34.19 34.19 34.44 33.80 33.61 32.71 31.49 31.18 30.13 30.86 31.08 30.89 32.61 33.76 35.70 34.81 31.24 29.86 29.19 29.70 31.11
32.15 31.97 32.53 33.04 33.20 32.68 32.08 31.51 30.95 30.05 30.13 30.36 30.73 30.53 30.94 31.58 31.29 29.65 27.83 27.62 28.16 29.41

GFSNIL_sfc_wetblb_084.txt.gz
Wetbulb
61.25 60.58 59.66 59.94 60.16 59.40 59.00 58.17 58.27 57.40 57.64 56.93 57.14 57.95 58.65 58.38 58.80 60.04 60.80 60.37 60.60 60.35
60.60 60.00 59.16 59.94 60.98 61.33 61.80 60.93 59.07 58.85 57.23 56.79 56.79 57.09 57.44 57.26 57.18 58.28 59.17 61.18 61.30 60.34
59.84 60.75 60.32 60.50 60.23 60.61 60.74 59.96 59.93 58.99 58.19 56.82 56.92 56.62 56.88 56.10 57.19 57.12 57.52 57.57 57.71 59.16
58.91 59.65 59.63 59.38 59.65 60.10 60.53 59.83 59.79 58.65 57.88 56.82 56.00 55.91 55.51 54.52 55.13 55.86 56.60 57.49 57.09 56.71
60.08 59.14 58.23 58.25 59.90 61.40 60.27 60.21 60.05 59.62 57.55 57.23 56.55 55.91 54.70 53.53 53.67 54.42 54.44 55.34 56.67 56.19
58.10 57.36 57.23 57.25 59.90 59.62 58.90 59.27 59.38 59.15 59.01 58.31 57.76 57.35 55.92 55.51 55.48 56.04 56.21 56.04 54.25 54.72
56.38 56.82 56.66 56.82 58.79 57.73 57.78 57.75 58.55 58.34 57.84 57.89 58.57 58.45 57.31 56.41 55.96 55.95 56.80 56.91 56.97 56.02
50.23 52.90 55.14 56.53 57.85 58.95 59.01 58.53 58.99 58.62 58.25 58.10 58.12 45.31 45.82 58.52 58.49 58.15 57.87 58.91 59.17 59.61
46.01 46.06 46.13 47.23 48.28 47.92 47.73 45.50 46.42 46.38 48.03 41.70 40.46 36.05 37.29 41.45 56.03 57.84 57.39 57.02 58.02 58.44
42.18 42.17 42.68 42.70 41.41 40.15 40.14 40.52 40.12 39.74 39.14 36.78 36.14 35.46 36.70 36.60 45.41 49.71 41.67 40.53 41.01 43.73
39.75 39.01 39.29 38.99 37.90 36.52 36.33 35.48 35.41 35.39 35.72 35.06 34.54 35.20 36.89 37.29 40.01 36.05 34.55 34.27 34.53 34.73
37.32 36.92 36.80 35.22 34.84 34.81 33.62 32.97 32.43 32.99 32.70 32.66 32.52 34.24 36.22 36.41 34.08 31.93 30.84 31.32 32.04 31.83
35.12 35.27 34.97 34.85 33.86 33.99 33.51 32.49 32.26 31.19 32.02 32.40 31.93 32.56 34.04 34.36 32.75 30.19 29.98 30.50 30.58 31.04
34.47 34.50 35.08 35.24 35.48 35.04 34.17 33.66 32.76 31.71 31.72 31.26 31.68 31.34 31.84 33.74 33.22 31.17 30.21 29.66 29.45 29.99

GFSNIL_sfc_wetblb_087.txt.gz
Wetbulb
62.98 62.17 61.28 62.49 60.61 60.27 59.29 59.18 58.18 57.20 56.85 57.57 58.17 58.49 58.77 59.35 59.88 60.78 61.11 60.75 60.75 60.22
62.64 61.58 61.05 62.10 62.30 61.09 61.26 59.77 59.21 58.30 57.10 56.79 57.51 57.87 57.73 57.75 57.71 58.90 60.84 60.74 59.82 59.92
61.47 61.27 61.68 62.13 61.70 61.75 61.93 60.96 60.35 58.01 58.48 56.90 56.79 57.45 57.58 57.21 57.59 57.56 58.14 59.12 59.22 60.18
60.46 60.71 61.10 60.36 61.17 61.26 61.84 61.39 60.96 59.64 57.89 56.87 56.63 56.60 56.60 56.10 55.65 55.29 55.82 57.64 58.15 57.50
60.19 60.45 59.83 59.55 60.22 61.15 60.68 60.74 59.80 60.51 58.90 57.15 56.34 56.14 55.54 55.36 55.07 54.64 55.22 56.43 56.44 56.16
58.77 58.46 58.45 58.96 59.28 60.42 59.90 59.78 60.45 59.54 58.64 57.70 56.75 55.89 55.45 55.22 55.12 54.31 54.43 54.87 55.24 55.79
57.68 57.77 58.38 57.94 59.35 59.50 59.26 58.83 58.77 59.15 59.34 58.37 57.80 56.93 56.35 55.28 54.06 53.74 54.33 54.76 55.85 56.02
52.13 55.85 56.08 54.87 52.62 56.51 55.18 55.75 56.21 57.94 58.02 55.09 45.34 41.08 44.01 53.05 55.69 56.04 55.32 55.65 56.25 56.55
46.48 47.18 46.58 45.52 45.33 44.81 44.31 43.90 44.22 42.97 42.19 41.50 39.46 36.12 37.45 41.29 52.96 52.27 51.56 52.25 50.65 48.98
41.84 41.34 41.01 40.49 39.19 38.93 38.63 38.72 37.92 37.85 37.80 36.64 36.73 36.49 37.90 39.03 44.68 40.75 39.46 38.54 38.67 40.23
38.44 37.82 37.74 36.78 35.40 35.09 35.26 34.77 34.69 34.71 34.64 34.52 35.35 36.50 35.94 35.20 35.40 33.92 33.58 33.37 33.53 33.87
36.79 35.49 34.92 33.84 33.70 33.64 32.87 32.67 32.54 33.43 33.24 32.57 33.34 35.18 34.92 34.17 32.92 31.61 30.96 31.21 32.08 31.99
35.28 35.21 33.94 33.27 33.86 34.01 33.20 32.37 32.20 31.53 32.46 32.57 31.39 33.93 34.27 33.91 32.62 30.21 29.69 30.08 30.34 31.29
35.05 34.88 34.35 34.74 35.63 35.22 34.79 33.87 33.23 32.53 32.48 31.06 31.98 31.62 32.62 34.63 33.46 32.22 30.60 29.60 28.91 30.08

GFSNIL_sfc_wetblb_090.txt.gz
Wetbulb
62.97 61.40 60.97 61.28 60.41 59.69 58.97 58.37 58.07 57.53 57.63 58.28 59.18 59.03 59.61 59.51 59.39 58.93 58.27 58.94 58.63 58.31
62.27 61.11 60.73 61.36 60.80 60.53 59.61 58.84 58.30 57.79 57.03 57.51 58.14 58.60 58.84 58.74 57.93 58.22 58.80 59.16 58.78 58.02
61.38 60.95 61.11 61.36 60.14 60.65 60.47 59.59 58.26 57.65 57.14 56.97 57.37 57.61 57.81 57.67 58.61 58.16 59.11 58.96 58.32 57.40
60.94 60.20 60.32 60.33 61.08 60.93 60.98 60.33 59.23 58.17 57.00 56.67 56.53 57.11 56.77 56.83 56.79 56.53 56.61 56.95 56.73 56.59
59.38 59.62 59.89 59.77 60.46 60.26 59.89 60.47 59.57 58.81 57.69 56.56 56.27 56.37 55.77 55.29 55.33 54.88 54.65 55.13 55.43 55.47
58.53 58.55 58.34 58.52 58.99 59.64 59.55 59.19 59.37 59.24 57.63 56.64 56.17 55.47 55.15 54.82 54.25 53.89 53.83 54.49 54.60 54.78
57.73 57.72 57.53 57.82 59.24 58.61 59.09 58.42 59.01 58.92 58.20 57.20 55.93 55.51 55.21 54.76 54.59 54.51 54.51 55.04 54.80 55.17
51.47 52.68 51.84 50.32 52.10 51.50 50.58 48.61 48.24 47.01 45.71 44.39 42.63 40.41 44.58 53.88 54.13 53.02 52.97 53.31 53.50 53.10
45.67 45.31 44.33 43.53 43.43 43.40 42.35 42.20 41.52 40.27 40.09 39.74 40.79 37.37 38.17 44.53 47.69 48.16 47.78 46.82 46.28 42.41
40.27 39.58 39.56 38.83 38.28 38.16 37.55 37.40 36.65 37.13 37.61 36.79 36.63 36.38 37.96 38.37 39.48 37.64 37.20 37.05 38.13 38.90
37.12 36.16 36.10 35.53 34.87 34.80 34.82 34.51 34.05 33.97 34.94 34.99 34.88 34.93 34.85 34.45 34.06 33.16 32.85 33.20 33.74 34.11
35.39 34.30 34.00 33.16 33.09 33.22 32.97 32.73 32.33 32.45 32.42 33.04 33.41 34.64 34.11 33.31 31.81 30.64 30.30 31.41 32.29 32.40
34.87 34.18 33.29 33.20 32.91 33.22 32.50 31.15 30.55 30.10 31.17 31.90 31.65 34.39 34.23 32.93 31.40 29.40 28.89 29.56 30.30 32.21
33.53 33.69 33.93 34.29 34.40 33.81 32.77 31.49 30.01 28.90 28.97 29.27 30.43 31.34 33.67 33.83 31.13 29.01 27.88 27.26 27.40 29.31

GFSNIL_sfc_wetblb_093.txt.gz
Wetbulb
61.55 58.59 58.74 58.84 58.42 56.54 56.36 57.55 57.47 57.02 57.61 58.61 58.49 59.99 60.56 60.43 60.34 59.77 59.02 58.58 58.28 58.21
61.01 58.88 58.87 58.37 58.59 57.93 57.92 57.00 56.68 56.94 57.19 57.65 58.31 59.25 59.55 59.64 59.64 59.86 59.06 58.85 58.70 58.01
59.89 59.42 58.87 58.71 57.68 57.98 58.78 58.29 57.49 56.64 56.62 57.05 57.45 57.95 58.43 58.01 58.85 58.87 58.78 58.63 58.30 58.27
58.94 59.85 58.98 58.37 58.37 57.78 58.77 57.06 57.11 56.89 56.32 56.38 56.70 57.07 56.89 57.47 57.63 57.11 57.58 57.99 58.07 57.54
58.83 58.64 58.95 59.66 59.96 59.95 58.97 58.65 57.88 56.98 56.20 55.77 56.50 56.56 56.06 56.14 56.44 57.14 57.23 57.66 57.58 56.28
58.01 58.09 58.25 58.62 58.78 59.16 59.51 59.20 58.13 57.40 56.30 55.53 55.95 55.72 55.26 55.20 55.02 54.88 55.16 55.16 55.01 55.18
57.25 57.21 56.66 57.59 57.73 57.51 56.35 57.63 57.64 57.02 56.34 55.15 55.01 55.31 55.23 54.66 54.15 53.89 54.04 54.56 54.38 54.48
50.73 50.53 49.97 49.78 48.93 47.89 47.43 47.50 47.84 46.39 45.51 44.94 44.11 42.41 48.55 54.61 54.23 53.63 53.58 54.14 52.44 45.86
45.01 43.89 43.14 42.73 42.36 41.74 41.25 41.02 41.25 40.56 40.61 40.28 40.17 38.40 40.13 47.28 46.76 46.69 49.20 45.43 42.96 40.68
39.46 39.26 38.47 38.16 37.99 37.33 36.98 37.43 37.19 37.03 36.54 35.72 36.30 36.72 37.37 37.46 38.41 37.51 37.08 37.99 39.17 39.23
35.53 35.67 35.85 35.37 34.84 34.69 34.47 34.10 34.32 34.49 34.90 34.61 34.44 34.66 34.84 34.35 34.17 33.62 33.55 34.00 35.06 37.05
33.96 33.52 33.28 32.61 32.34 32.60 32.17 31.94 31.88 32.46 33.31 33.11 33.16 34.07 33.54 32.78 31.60 30.99 31.26 32.71 32.95 32.89
33.53 33.23 32.54 32.56 31.82 31.56 30.86 30.01 29.94 29.62 31.11 32.58 32.54 33.49 33.06 32.21 30.55 28.88 29.20 30.67 31.66 32.81
32.01 32.27 32.52 32.58 32.50 31.41 30.31 29.36 28.51 28.21 28.81 29.75 31.15 31.92 32.50 31.73 29.92 28.32 28.03 28.08 28.92 30.70

GFSNIL_sfc_wetblb_096.txt.gz
Wetbulb
59.88 59.32 59.22 59.05 58.58 59.05 59.55 59.47 58.35 58.47 58.62 59.14 59.56 60.31 60.67 60.83 60.64 59.83 59.11 58.52 58.41 57.68
60.10 58.46 58.10 58.20 58.86 57.54 56.53 55.80 55.18 56.41 56.41 56.95 57.53 58.31 59.02 59.94 59.90 60.10 59.27 58.82 58.65 58.08
59.09 59.11 59.22 58.56 57.29 56.97 56.61 56.41 55.34 55.70 55.78 56.11 57.13 57.70 58.64 58.72 59.36 59.30 59.46 59.08 58.43 58.15
58.71 59.31 59.27 58.21 57.47 57.25 57.39 57.53 56.76 56.37 55.82 55.73 56.21 57.04 57.50 57.80 57.86 57.86 58.64 58.63 58.34 57.72
58.92 58.95 58.68 58.22 57.81 57.05 56.81 57.60 57.21 56.65 56.09 55.78 55.89 56.55 56.27 56.27 56.81 56.71 56.94 58.01 57.91 57.31
58.50 58.40 58.37 58.29 58.23 59.05 58.45 57.54 57.30 56.77 55.38 55.39 56.05 55.89 55.73 55.69 55.15 56.55 56.97 57.10 57.49 57.13
56.55 56.49 56.35 55.50 54.80 55.04 57.75 57.74 57.05 56.63 56.00 55.54 55.55 55.55 55.16 55.01 54.55 54.42 54.58 55.31 55.77 56.39
51.14 50.91 50.18 48.82 47.67 47.51 47.15 46.85 47.88 47.31 46.18 45.59 45.20 43.85 50.29 54.38 53.73 53.46 53.70 48.94 46.49 44.66
43.42 43.61 43.28 42.75 42.22 41.94 41.19 40.94 40.49 39.45 39.45 38.99 39.47 37.48 40.45 48.22 49.50 50.56 47.78 43.03 40.66 39.22
38.69 37.60 37.56 38.33 37.91 37.05 36.95 37.19 36.51 36.26 35.91 34.86 35.41 36.16 37.03 37.93 39.95 39.42 39.63 40.53 39.92 37.63
34.80 33.76 33.98 33.87 33.52 33.91 34.27 34.03 34.21 33.84 34.19 33.76 34.00 34.48 34.61 34.79 35.24 34.61 34.38 35.57 37.89 35.81
33.22 31.95 32.06 31.22 31.03 31.61 31.63 31.52 31.91 32.91 32.63 32.21 32.59 33.48 33.24 33.17 32.56 32.10 32.17 33.10 33.58 33.22
32.91 31.99 30.84 30.47 30.01 30.59 30.25 29.84 30.22 30.10 31.36 31.93 31.24 33.03 32.66 31.85 31.06 30.02 30.32 31.60 31.97 32.97
30.47 31.72 31.94 31.70 31.38 30.33 29.43 28.88 28.41 28.41 29.24 29.84 30.72 31.07 31.92 31.41 29.66 29.21 29.07 29.11 29.70 31.31

GFSNIL_sfc_wetblb_102.txt.gz
Wetbulb
63.21 60.54 60.27 61.13 60.92 60.50 60.23 60.43 60.78 60.62 61.11 61.03 60.69 60.03 59.82 59.10 59.21 59.42 59.09 58.81 58.91 58.38
60.88 59.34 58.88 59.69 60.24 59.67 59.44 58.13 59.05 58.85 59.27 59.45 59.53 58.65 59.35 58.78 58.82 58.80 59.01 59.22 59.15 58.97
60.41 60.17 58.86 58.82 58.52 58.78 58.34 58.56 58.22 57.14 57.30 57.59 58.07 59.11 58.87 58.63 58.99 59.23 59.57 59.43 58.81 58.66
59.01 58.85 58.92 58.56 58.15 58.62 58.18 58.28 57.70 57.54 57.14 56.62 56.14 55.88 55.50 55.66 55.22 56.22 57.46 58.28 58.33 58.32
58.23 58.25 58.01 57.81 57.75 57.77 57.14 57.48 56.80 56.30 55.59 55.13 55.27 55.34 55.40 53.86 56.16 56.02 56.00 56.76 57.02 57.00
57.39 57.97 57.49 57.59 57.38 57.62 57.18 56.90 56.64 55.72 55.49 55.15 55.07 55.24 54.76 54.96 55.38 55.84 56.16 56.54 56.70 56.78
49.72 56.96 56.86 57.64 57.62 57.14 57.04 56.14 55.52 56.20 55.61 55.21 54.68 54.77 55.14 55.42 55.01 54.29 52.61 50.75 52.53 54.68
39.44 43.91 49.85 52.40 55.14 55.14 54.15 53.37 51.44 48.81 46.82 45.77 44.76 42.84 45.11 51.90 54.09 51.24 46.66 43.97 42.34 40.55
35.05 36.56 37.91 41.27 43.25 42.39 41.22 41.04 41.27 39.51 39.39 38.65 38.56 37.26 39.37 45.06 47.51 45.46 43.71 41.40 39.64 38.74
34.79 33.01 33.29 34.60 36.26 35.91 35.86 36.10 35.22 35.18 35.17 34.81 35.70 36.69 38.23 38.40 39.33 38.43 37.74 37.20 37.03 36.67
33.58 32.78 32.29 32.10 31.72 32.23 32.75 32.36 32.96 32.68 33.46 33.69 34.58 35.30 35.51 35.55 35.47 34.47 33.98 33.98 34.31 34.04
31.27 31.60 31.22 30.05 30.15 30.63 30.28 30.28 30.66 31.39 31.71 32.17 32.83 34.38 34.42 33.90 32.92 32.02 31.97 33.11 33.08 32.46
29.22 28.92 28.78 29.24 28.85 29.89 30.03 29.65 30.18 29.90 30.61 31.82 31.25 33.56 33.66 32.91 31.88 30.44 30.62 31.22 31.54 32.66
27.58 27.70 28.35 28.11 28.49 28.47 28.32 28.32 28.09 27.91 28.67 29.18 30.15 30.80 32.07 31.94 30.21 29.49 28.84 28.61 29.03 30.07

GFSNIL_sfc_wetblb_105.txt.gz
Wetbulb
63.43 63.46 64.62 65.24 65.09 64.01 62.24 62.31 63.55 63.44 64.02 64.14 63.34 62.98 64.03 63.79 62.88 61.28 60.38 60.17 60.29 59.85
63.66 62.95 62.57 64.31 65.54 63.92 63.07 62.48 62.47 62.90 63.03 63.00 62.15 62.51 62.82 61.30 61.63 62.57 60.44 60.16 60.18 60.12
63.14 62.76 62.29 62.61 63.51 63.29 63.01 62.55 61.49 61.75 62.25 61.34 61.83 62.05 61.12 60.84 61.76 59.23 59.45 59.77 59.22 59.60
60.60 61.22 60.69 60.58 61.23 61.05 60.97 60.75 60.77 60.91 60.19 60.51 60.89 61.64 60.80 61.30 58.70 58.74 58.62 59.28 59.04 58.96
59.59 59.58 59.26 59.32 59.51 59.83 59.89 60.45 59.74 59.80 59.09 59.29 59.31 59.38 58.70 57.49 57.23 57.21 58.09 59.07 59.65 59.52
47.64 56.12 58.95 58.74 58.46 58.70 58.48 58.34 58.94 58.36 57.89 57.46 56.95 56.63 56.63 56.92 57.64 58.51 58.58 58.35 58.64 56.94
40.44 42.57 47.98 58.63 58.58 58.10 57.97 57.65 57.57 57.86 57.23 56.67 56.59 56.50 56.65 56.50 57.20 56.91 54.97 51.67 48.37 46.15
37.28 37.78 39.26 42.13 47.50 56.88 57.74 55.82 56.81 53.40 49.33 48.91 48.67 45.45 53.17 56.70 56.36 51.57 47.10 45.17 43.02 40.65
36.41 35.39 34.78 35.67 37.72 39.54 40.56 41.12 41.42 39.92 39.71 39.76 39.26 37.28 38.89 46.41 49.31 47.01 44.86 42.53 40.65 39.90
34.85 34.94 33.43 33.22 32.90 33.46 34.16 35.36 35.15 35.51 35.58 35.08 36.00 36.38 37.59 38.76 41.66 39.97 39.43 39.34 39.61 37.89
32.03 33.04 33.68 32.80 31.46 31.54 32.12 31.97 32.59 33.04 33.64 33.94 34.62 35.09 35.13 35.27 35.66 34.62 34.76 35.17 35.66 35.65
29.10 29.49 30.89 31.07 30.86 30.81 30.56 30.89 31.08 31.55 31.70 32.23 32.98 34.38 34.20 33.87 32.86 32.04 31.96 33.21 33.83 33.22
28.50 28.21 28.13 28.84 28.96 30.37 29.22 28.62 28.73 28.33 29.60 31.15 30.82 33.16 33.13 32.51 31.54 30.16 29.89 30.65 31.19 31.66
28.00 28.53 29.05 29.05 29.79 29.78 28.72 28.48 27.19 26.38 26.92 27.67 28.75 29.87 31.23 30.95 29.21 28.44 27.81 27.73 28.24 29.68

GFSNIL_sfc_wetblb_108.txt.gz
Wetbulb
49.70 53.75 61.94 64.38 63.55 65.16 65.17 63.92 64.78 64.86 65.62 65.67 66.33 65.77 66.33 66.06 65.84 65.72 65.50 63.58 63.58 62.16
48.92 52.93 62.47 66.19 64.30 64.32 66.37 64.97 64.60 64.67 64.31 65.04 64.82 64.04 65.06 64.92 64.89 64.34 64.60 64.03 62.88 61.70
47.71 53.53 64.10 66.01 64.57 64.03 66.49 65.70 65.01 64.66 63.64 63.62 63.45 63.14 63.96 64.38 64.29 62.95 63.85 63.23 62.93 61.29
51.02 62.27 64.19 64.31 64.77 64.48 65.29 64.68 64.23 63.68 62.37 62.48 62.45 62.32 62.44 62.53 62.99 62.60 62.76 62.62 62.70 60.20
48.92 54.50 60.80 62.06 63.56 63.90 62.91 62.92 61.93 62.12 61.35 61.38 61.82 62.11 62.11 61.98 62.12 61.71 61.49 60.94 59.95 60.41
43.32 45.32 48.91 59.27 60.49 60.86 60.84 60.71 60.75 60.61 60.50 60.66 61.02 60.90 61.90 61.48 60.86 60.95 61.02 60.76 60.92 60.70
39.31 41.79 43.27 46.22 52.08 58.59 58.91 59.17 59.41 59.71 60.03 60.05 60.11 60.58 60.62 59.41 58.76 58.89 58.45 57.50 57.42 55.20
38.08 37.99 37.65 39.07 40.27 43.07 49.14 56.27 57.78 57.59 57.25 55.10 55.69 53.70 59.16 59.10 58.75 56.59 53.45 51.17 48.29 45.92
35.03 35.95 35.86 35.78 36.40 36.47 37.46 39.47 40.80 42.28 43.63 42.63 40.78 38.35 40.03 53.29 55.59 50.72 48.38 44.89 44.27 42.67
32.69 32.91 33.75 33.84 33.17 33.27 33.30 34.65 35.10 35.63 36.07 36.42 36.98 37.34 38.35 39.36 42.57 40.97 40.43 41.09 41.48 40.90
30.50 30.94 32.19 32.45 31.49 31.31 30.66 31.52 31.85 32.09 32.92 33.47 34.30 35.14 35.38 35.06 34.91 34.15 34.39 35.07 35.89 36.02
29.98 29.93 30.00 29.52 29.47 30.12 29.43 28.63 28.66 30.12 31.11 31.84 32.41 33.90 33.84 33.33 32.14 31.11 30.71 31.68 32.50 32.46
31.36 30.71 30.14 30.72 29.39 29.56 28.84 27.66 27.49 27.22 28.13 30.51 30.45 32.79 32.79 32.07 30.86 29.29 29.00 29.77 30.33 31.13
31.96 31.59 31.59 31.77 31.77 31.24 29.81 28.98 27.66 26.56 26.43 27.43 28.37 29.44 30.74 30.72 29.26 28.38 27.53 26.90 27.16 29.06

GFSNIL_sfc_wetblb_111.txt.gz
Wetbulb
44.13 46.66 49.62 53.77 58.10 62.46 65.97 67.09 67.92 65.24 65.57 66.24 66.36 67.23 67.65 67.35 65.59 65.56 65.94 66.13 66.00 64.97
43.09 44.71 46.99 50.52 55.83 60.66 65.67 66.82 67.71 66.04 64.82 65.20 65.50 65.64 66.58 66.63 67.01 65.83 65.09 66.21 66.10 65.05
41.53 44.09 46.49 48.71 52.11 59.61 65.81 66.72 67.05 66.96 65.00 64.35 64.73 64.69 65.30 65.78 66.05 66.36 65.14 64.98 63.95 63.91
41.84 44.70 47.91 53.61 55.77 62.14 65.15 66.01 65.48 65.21 64.51 63.98 64.35 63.90 64.04 64.51 64.70 63.85 62.99 63.85 63.30 63.21
41.38 43.08 46.49 50.23 59.86 62.74 64.10 65.35 65.35 64.90 63.57 63.24 63.05 62.88 63.19 63.75 64.36 62.97 62.29 62.80 62.73 62.63
38.91 39.86 41.25 45.06 49.32 51.83 62.39 63.51 63.22 63.31 63.21 62.47 62.20 61.81 62.97 64.33 63.38 62.14 62.16 62.64 62.40 62.22
34.83 37.32 38.92 41.32 42.84 45.77 48.93 58.66 60.51 61.32 61.20 61.31 61.24 61.13 61.99 62.72 62.99 61.75 61.75 61.19 61.23 59.75
33.80 35.37 36.79 37.40 38.00 39.10 41.15 42.23 44.90 52.20 52.75 56.82 58.09 57.76 60.62 61.36 61.51 58.69 56.32 54.34 51.39 45.52
32.50 32.86 33.77 34.87 34.80 34.44 35.40 35.98 37.26 36.89 38.64 40.65 43.96 43.13 48.38 55.57 57.29 55.59 51.57 46.71 44.11 41.52
31.58 31.07 31.29 33.01 32.20 31.92 31.98 33.10 33.70 35.41 35.02 34.46 37.34 39.35 42.59 42.03 43.09 41.59 41.23 43.03 42.00 40.70
31.39 30.77 30.38 29.74 29.50 30.55 30.37 29.34 29.64 30.55 32.90 33.46 32.85 34.13 35.12 35.38 35.30 34.08 34.08 34.77 35.93 35.36
31.64 31.22 30.84 29.54 28.98 28.76 27.93 27.95 27.69 28.27 29.45 30.27 31.05 33.88 33.53 32.63 31.50 30.58 30.72 31.74 32.38 32.13
32.43 32.19 31.54 31.81 31.23 30.94 29.88 28.09 27.68 26.72 27.65 29.17 28.98 31.78 32.45 32.09 31.11 29.24 28.80 29.41 30.34 31.38
31.89 31.89 32.07 32.25 32.25 32.25 31.89 31.38 29.96 28.65 28.12 27.46 27.87 29.03 30.31 29.65 27.62 27.52 26.91 26.64 27.28 29.14

GFSNIL_sfc_wetblb_114.txt.gz
Wetbulb
42.43 42.67 43.61 44.66 46.39 48.60 51.60 54.65 58.57 63.65 64.40 65.02 65.09 65.24 65.85 65.62 65.50 65.22 64.23 63.24 62.92 62.04
40.29 40.78 41.45 42.82 44.66 46.34 48.89 52.20 55.54 59.26 64.05 64.69 64.92 64.61 65.12 65.09 64.81 64.65 63.85 63.50 63.05 62.70
39.02 39.92 41.39 43.44 44.20 45.86 47.48 50.10 53.47 56.68 62.67 64.74 64.72 64.72 64.96 64.61 64.32 63.60 63.87 62.23 61.43 61.04
38.19 39.04 41.30 42.31 43.91 46.53 49.47 50.61 51.98 56.15 61.54 63.81 63.70 64.28 64.22 64.01 63.72 63.26 63.37 63.21 62.23 60.27
36.72 37.23 38.98 40.20 42.50 45.43 48.75 55.74 54.26 57.60 61.94 62.80 63.22 63.23 63.54 63.20 63.27 62.92 62.02 62.18 62.24 61.00
34.43 35.26 36.32 38.57 40.28 41.63 46.47 49.57 57.29 61.24 61.34 62.03 62.56 62.58 63.43 63.42 63.12 63.13 62.62 62.27 60.84 60.63
33.17 33.72 34.63 36.64 37.22 37.95 40.28 42.09 43.86 53.30 59.40 61.26 62.12 62.39 62.65 62.66 62.49 62.48 61.94 60.74 59.94 58.82
32.61 33.03 33.56 34.12 34.52 34.63 34.44 37.37 39.70 39.67 40.86 43.96 46.76 49.53 59.18 61.96 62.05 61.26 55.98 49.52 45.05 41.91
32.13 31.51 31.08 31.59 31.79 32.45 32.51 32.17 34.08 35.99 37.33 36.57 36.98 37.80 42.80 56.50 59.95 54.10 48.28 42.67 40.29 39.57
32.22 31.11 30.41 29.91 29.44 28.88 29.53 30.64 30.15 31.44 33.91 34.66 35.14 35.88 39.28 41.20 44.54 44.50 45.03 43.23 40.81 39.86
31.96 31.64 31.44 30.46 29.03 28.10 28.10 27.70 27.88 28.68 30.17 31.73 33.89 36.42 35.59 35.00 35.25 35.26 34.11 33.82 34.37 34.74
31.60 31.20 31.44 31.05 30.53 30.09 28.99 28.06 27.59 27.49 27.83 28.24 29.90 33.22 33.69 32.18 31.39 30.66 29.87 31.31 31.89 31.88
30.58 30.09 30.58 30.60 31.51 31.52 30.96 29.32 29.04 28.61 28.59 29.34 28.32 31.29 31.46 30.89 30.21 27.81 28.16 29.13 30.09 31.89
29.88 28.82 29.43 30.30 30.37 30.64 30.04 29.27 28.42 27.54 27.63 28.77 29.73 29.71 30.70 29.74 26.72 26.51 26.48 27.08 27.88 29.82

GFSNIL_sfc_wetblb_117.txt.gz
Wetbulb
38.19 38.85 39.23 39.90 41.07 42.28 43.62 44.87 46.69 48.28 51.09 53.54 56.15 63.19 64.13 64.07 63.82 64.25 64.31 63.21 63.00 62.36
36.14 36.83 37.51 39.31 40.46 41.11 42.80 44.65 45.70 47.05 48.72 51.47 54.42 59.53 62.95 62.71 62.47 64.44 64.59 63.77 63.02 62.16
35.52 36.76 37.85 38.51 39.07 41.07 42.84 44.34 45.27 45.91 47.27 49.46 53.10 57.50 62.11 60.57 62.38 62.75 63.82 63.81 63.03 62.09
35.30 36.53 37.00 37.75 39.08 40.90 42.10 43.66 45.07 47.41 48.91 49.47 50.93 55.00 61.70 61.04 61.34 61.42 62.38 62.86 62.20 61.10
35.26 35.70 35.75 36.41 37.60 39.72 39.90 41.69 44.25 47.99 50.68 50.97 51.13 54.58 61.11 62.10 61.87 61.14 61.82 62.34 61.73 60.30
33.84 33.97 33.93 35.06 36.38 36.98 37.68 39.54 41.84 42.83 47.50 52.84 53.37 54.89 60.57 61.38 62.58 62.13 61.90 61.85 61.55 61.33
32.87 32.71 32.64 33.16 33.68 34.62 35.59 36.11 37.22 40.74 41.21 44.67 47.74 55.58 60.31 60.29 60.54 60.80 61.76 60.94 61.34 61.27
32.89 32.74 31.92 31.17 31.44 31.80 33.22 33.99 34.28 35.63 37.39 38.31 38.81 42.62 48.89 56.69 60.11 60.39 57.01 50.92 47.73 46.41
32.43 32.41 31.90 31.01 30.27 29.99 29.88 31.02 32.06 31.47 33.24 34.53 35.79 37.04 40.82 50.58 58.00 52.59 46.67 41.57 39.61 39.34
31.78 31.48 31.79 31.54 30.49 29.25 29.12 29.50 29.41 29.96 30.96 31.36 32.74 34.31 35.56 36.50 37.13 37.50 40.15 42.00 42.63 39.39
29.91 30.60 30.52 30.82 30.11 29.25 28.90 28.35 28.79 28.87 29.54 29.63 31.02 33.42 33.27 32.90 33.29 32.14 33.30 33.85 36.05 37.66
27.80 27.57 28.94 27.91 28.72 28.90 28.11 27.29 26.83 27.70 28.94 29.11 29.74 32.02 32.28 31.91 30.57 30.48 30.67 31.36 31.62 32.97
27.07 25.51 25.63 27.30 26.73 27.67 27.62 26.51 26.55 25.98 26.66 29.09 29.21 32.37 31.52 30.09 29.29 28.46 28.90 29.70 30.33 31.83
25.06 24.32 23.80 24.62 26.08 25.14 25.10 25.04 24.28 24.38 25.10 25.63 27.84 29.68 32.65 31.44 28.32 27.80 27.75 28.06 28.65 30.53

GFSNIL_sfc_wetblb_120.txt.gz
Wetbulb
34.19 34.86 35.77 37.75 38.52 39.33 39.90 40.45 41.73 42.44 44.26 45.34 46.55 48.56 51.28 54.08 61.38 62.48 61.93 61.46 61.83 61.71
33.83 34.50 35.26 36.44 38.11 38.79 39.70 40.99 42.42 43.88 44.33 45.27 45.45 46.87 49.69 52.08 54.64 62.11 61.89 61.95 62.26 62.13
33.98 35.04 35.88 36.07 36.05 37.86 38.93 40.25 41.39 42.10 43.24 44.38 46.16 46.66 47.70 50.04 54.26 60.08 61.29 62.27 61.62 61.75
33.68 34.93 35.71 35.82 36.45 37.15 38.11 38.83 39.34 40.32 41.50 43.04 44.83 47.42 48.73 49.76 51.71 55.71 60.29 61.87 61.65 61.97
33.68 34.00 33.64 33.85 34.54 35.62 35.77 37.66 37.90 39.21 40.63 43.11 44.81 48.00 49.26 49.69 51.17 53.71 59.11 59.90 61.23 61.74
33.31 33.33 32.47 32.32 32.94 33.47 33.76 35.18 36.31 36.61 39.35 40.91 43.39 44.33 52.20 51.36 51.22 53.84 58.97 59.28 59.32 60.56
32.34 33.28 33.11 32.60 32.17 32.40 32.62 32.79 33.83 35.06 35.78 37.19 38.84 39.72 44.91 52.27 52.21 54.55 59.97 59.35 59.31 60.59
32.26 32.51 32.89 32.32 31.76 31.73 31.58 31.84 32.05 32.99 33.19 34.95 35.06 36.15 38.15 46.98 54.89 55.85 58.32 56.01 56.62 58.19
29.71 31.15 30.62 31.34 30.72 29.89 29.28 29.94 30.88 31.10 31.38 31.45 33.57 34.40 37.85 42.61 43.50 44.32 43.55 42.28 42.36 42.67
27.57 27.58 29.06 29.18 29.17 28.27 27.79 27.81 27.68 29.42 30.87 30.67 31.50 33.62 34.13 34.99 35.05 35.50 35.83 38.46 40.11 37.84
25.75 25.30 26.75 27.54 26.67 27.02 27.07 26.33 26.13 26.94 29.23 30.44 31.33 32.63 33.02 32.58 31.79 31.92 31.77 32.12 32.16 34.00
24.11 22.95 23.89 24.20 24.27 25.39 25.34 25.31 25.57 26.25 27.22 28.35 30.28 32.52 32.21 31.65 30.96 29.81 29.74 30.57 31.53 31.90
23.01 21.16 20.80 21.66 23.10 23.30 24.03 23.66 24.71 25.25 26.34 29.03 28.78 32.00 32.38 30.41 29.78 28.22 28.99 29.67 30.27 31.80
23.17 22.26 20.84 21.02 21.39 21.36 21.99 22.66 23.04 23.76 24.93 25.89 28.64 29.72 31.18 30.44 28.37 27.52 26.75 26.80 27.70 29.96

GFSNIL_sfc_wetblb_123.txt.gz
Wetbulb
34.31 34.14 35.08 35.84 35.52 36.27 37.79 39.09 40.51 41.28 42.47 43.68 44.79 45.60 45.67 45.94 47.58 50.74 53.23 60.95 60.15 59.98
33.69 33.95 34.59 35.69 36.36 36.74 37.75 38.79 40.12 40.42 41.45 42.40 43.52 44.50 45.39 44.73 45.55 48.57 51.45 54.52 61.18 59.81
33.13 33.85 34.62 35.11 34.98 35.44 36.73 37.24 38.21 38.87 39.45 40.35 41.75 43.35 44.77 45.48 46.27 47.17 49.65 53.59 58.57 60.57
33.21 33.30 33.55 33.10 33.98 34.10 34.81 35.34 36.28 37.13 38.08 38.37 39.38 42.07 43.54 44.69 46.09 46.52 48.64 51.20 54.97 59.83
33.21 33.47 33.01 32.90 33.09 33.60 33.37 34.37 34.74 35.55 36.23 37.34 38.95 40.48 42.37 43.64 46.73 48.47 49.21 50.21 51.56 57.17
31.29 31.51 32.38 32.04 31.92 32.11 32.22 32.86 33.50 34.29 34.29 34.77 36.33 37.34 39.52 41.34 43.16 45.99 49.27 50.88 51.77 54.78
29.09 30.46 30.31 30.91 30.65 30.64 30.65 30.08 31.27 32.84 33.34 33.77 34.25 35.52 36.31 37.97 40.63 44.39 51.72 52.01 52.82 54.77
27.68 28.28 29.21 28.46 29.35 29.40 29.33 29.33 29.55 30.23 32.21 32.76 33.22 34.14 34.82 38.55 40.74 43.01 51.28 51.17 49.05 46.87
26.50 26.45 26.73 27.23 27.28 27.43 27.52 27.85 27.86 28.33 30.35 31.06 32.15 34.15 34.54 35.75 38.03 39.07 40.17 40.08 38.95 38.80
24.42 24.28 24.34 25.51 24.90 24.65 24.95 25.84 26.39 26.99 29.05 29.65 31.03 33.50 33.74 32.95 32.51 32.74 33.30 33.63 34.59 34.57
22.31 21.88 22.52 22.86 23.07 23.29 24.17 24.25 25.01 25.82 27.42 28.44 30.13 32.55 32.73 32.49 31.35 30.89 30.98 31.06 31.79 32.30
21.20 20.44 20.61 20.16 20.64 22.02 22.90 23.73 24.61 25.52 25.53 26.85 28.15 31.62 31.71 30.26 29.24 28.95 28.95 30.21 31.38 30.83
22.33 20.76 19.92 20.38 20.51 21.16 22.21 23.12 24.63 24.38 24.98 26.95 25.62 30.68 30.51 28.50 27.70 26.08 26.46 27.80 29.05 31.64
22.65 21.93 21.32 21.67 22.07 21.51 21.32 22.18 23.13 23.35 23.57 23.97 25.27 25.26 28.69 28.56 25.36 25.05 24.68 24.70 26.02 28.11

GFSNIL_sfc_wetblb_126.txt.gz
Wetbulb
34.14 33.93 34.22 34.33 34.33 35.52 36.25 37.21 38.64 39.98 41.06 41.04 42.49 43.33 44.31 44.88 45.59 45.89 46.43 48.00 50.36 56.59
33.98 33.83 33.43 33.69 34.67 35.24 35.89 36.62 37.55 37.54 38.49 40.00 40.54 41.36 42.51 43.36 44.73 45.45 45.64 46.93 49.31 51.73
33.73 34.01 33.70 33.88 33.14 33.68 34.19 34.92 35.38 35.84 37.30 38.03 39.23 39.92 40.69 41.67 43.76 45.19 45.65 46.80 47.71 50.55
32.69 32.79 33.80 33.18 32.48 32.85 33.53 33.83 34.43 35.23 35.77 36.82 37.33 38.77 39.69 41.33 42.60 43.47 45.40 46.72 47.53 49.17
31.40 31.86 31.28 31.22 31.46 31.97 31.36 32.24 32.39 33.64 34.35 34.90 35.13 36.09 37.14 37.93 39.31 41.07 43.36 45.85 46.75 48.26
28.53 29.55 28.53 29.65 30.18 30.47 30.46 30.62 31.13 31.81 32.50 33.48 33.94 34.94 35.78 36.36 36.98 38.28 41.13 45.23 48.46 49.47
27.27 27.77 28.46 28.26 28.65 28.73 29.04 29.18 29.58 30.66 32.14 32.43 33.44 33.97 34.84 35.21 36.88 37.43 39.10 42.71 45.18 47.90
26.94 27.17 27.16 27.07 27.00 27.36 26.93 27.83 28.73 28.93 30.51 31.13 32.01 32.80 33.57 34.59 36.40 37.25 40.48 41.72 44.29 45.46
24.61 25.28 24.76 24.92 25.32 25.72 25.96 26.83 27.23 27.09 28.18 29.44 30.68 32.45 33.12 33.11 32.69 33.55 33.81 35.23 36.06 36.67
22.73 22.51 22.37 23.15 23.25 23.14 24.51 25.86 25.33 25.26 26.21 26.51 29.38 31.64 31.57 31.34 30.53 30.64 31.34 31.60 32.20 33.46
21.49 21.09 21.81 21.51 21.33 21.29 23.27 23.92 23.91 24.01 24.65 24.97 27.81 31.00 30.17 30.00 28.39 28.21 28.76 30.32 30.74 31.13
21.46 20.89 21.22 20.82 20.43 21.30 21.90 22.89 23.39 23.45 23.24 23.72 24.31 29.84 29.57 26.90 26.48 25.94 26.20 27.64 29.51 29.47
22.40 20.88 20.29 21.10 21.32 21.36 21.56 22.35 23.02 22.74 23.02 24.77 23.04 27.68 27.96 25.51 23.57 22.74 23.97 25.09 26.45 29.49
22.66 21.86 20.79 21.67 22.43 21.11 20.28 20.46 21.12 21.32 22.30 22.67 23.76 23.22 26.60 26.27 22.01 21.41 21.35 22.08 22.49 25.38